GFSFLT1_250_spd_000.txt.gz
Wind_Speed
33 34 34 38 42 43 42 42 43 45 46 48 49 52 54 53 52 51 53 53 55 56 57 59 60 61 62 62 63 64 63 62
39 43 45 43 47 47 46 47 49 51 53 55 55 57 60 62 61 61 59 60 62 63 64 67 68 67 68 70 71 72 72 73
42 43 44 47 51 54 53 52 54 55 58 59 58 58 59 63 65 68 68 68 69 70 72 74 76 79 80 81 81 82 82 84
49 47 48 50 53 56 59 58 60 62 59 60 61 63 65 68 71 73 75 77 78 80 83 85 89 93 94 95 97 97 96 94
48 54 52 53 55 58 58 61 60 62 62 63 66 70 71 73 76 79 82 86 89 93 95 97 100 103 105 105 105 103 103 100
55 53 53 54 56 57 58 59 62 65 70 72 73 75 78 81 86 89 91 93 97 101 106 108 108 108 108 107 107 107 103 101
51 50 52 55 57 60 62 66 69 74 76 79 83 88 92 94 97 99 102 103 106 109 111 111 110 110 110 108 104 101 95 94
50 52 55 58 60 62 66 71 75 80 84 87 90 93 96 100 103 103 105 106 107 109 111 110 106 107 107 103 98 94 87 84
54 56 59 61 64 68 72 77 82 84 87 91 95 98 101 102 105 109 109 111 112 111 109 107 105 102 98 97 93 85 79 75
58 60 62 66 70 75 79 82 86 89 91 95 98 103 107 110 113 115 113 114 116 112 110 106 99 94 91 89 84 80 75 73
63 66 69 73 78 83 85 87 88 92 95 98 102 108 110 115 115 115 116 112 112 111 106 98 93 87 84 82 81 78 75 74
72 75 79 82 84 84 84 90 96 97 103 107 112 116 119 122 120 118 116 112 111 104 99 94 90 87 83 81 79 77 74 76
76 78 77 77 81 86 90 97 101 108 111 115 120 125 128 128 124 123 118 113 107 100 96 93 89 85 83 81 78 76 76 77
74 79 83 87 90 94 101 105 110 114 118 122 125 131 133 131 126 120 113 105 102 97 94 92 89 86 82 78 77 75 74 74
84 87 92 95 99 104 109 112 116 121 126 129 131 137 140 127 118 111 105 102 100 97 94 90 88 84 80 77 74 72 71 72
89 94 100 105 108 111 116 120 124 128 133 137 138 138 127 116 109 103 101 100 98 94 90 86 81 77 75 72 69 67 65 65
97 102 105 108 114 117 122 129 134 136 137 137 135 128 116 109 106 103 99 96 92 87 83 78 74 70 66 63 61 61 60 60
103 109 115 119 124 125 129 135 140 141 136 133 122 111 108 108 106 101 95 90 85 80 75 71 68 64 61 59 57 57 57 56
110 116 122 125 129 133 141 141 141 135 128 120 113 108 106 104 99 92 86 80 77 73 69 64 62 60 57 55 54 54 54 51

GFSFLT1_250_spd_003.txt.gz
Wind_Speed
36 39 38 39 42 45 44 46 47 46 48 50 49 51 52 55 53 54 55 56 57 59 60 61 62 62 64 65 68 71 71 70
40 41 41 42 45 48 47 48 50 50 52 51 53 57 58 60 60 62 63 65 69 67 67 65 65 67 69 71 73 75 77 80
38 40 40 44 48 47 48 51 50 52 53 56 59 62 64 65 64 65 66 67 69 70 74 77 79 81 83 85 88 89 88 89
41 42 42 46 49 47 48 51 53 57 59 61 62 63 64 67 68 70 71 73 76 79 81 81 86 90 93 96 98 99 99 99
41 44 48 52 53 52 56 59 60 60 61 64 66 69 70 72 72 73 78 82 83 86 88 89 91 95 96 98 100 101 103 100
49 50 50 50 52 57 59 61 61 63 67 71 74 76 76 77 81 84 87 88 90 94 96 97 95 98 103 101 99 99 102 103
44 45 50 54 56 58 59 61 67 71 75 79 81 81 82 84 87 87 89 94 97 99 100 103 104 108 111 104 100 101 102 102
48 50 51 53 56 61 65 70 74 78 79 79 80 81 86 91 94 96 99 101 103 105 109 111 113 114 113 104 102 100 100 99
51 52 55 58 62 67 70 73 74 76 81 84 88 92 94 98 103 108 109 112 113 116 116 117 117 112 106 99 96 97 95 93
53 57 59 62 65 68 69 73 77 82 86 91 96 102 105 109 111 115 122 123 122 119 116 113 109 105 100 94 89 87 87 87
59 60 61 66 73 74 77 80 84 89 95 100 104 108 113 118 123 126 130 129 122 117 115 110 103 97 92 89 84 82 80 80
61 66 66 74 77 80 85 88 92 97 102 107 110 117 123 130 131 131 131 123 117 112 105 100 97 94 92 90 86 82 79 78
64 69 74 78 82 88 93 93 98 103 107 111 119 125 131 136 133 127 117 113 109 103 99 96 95 95 93 89 84 80 75 73
71 77 80 85 91 95 97 99 105 111 115 120 126 134 138 140 129 118 112 108 102 99 97 98 95 90 84 80 76 73 70 68
78 82 88 93 97 101 105 108 113 119 124 128 131 136 142 131 120 112 106 103 101 99 96 91 84 80 75 72 70 67 64 62
85 89 94 98 102 105 111 118 123 125 130 134 139 142 123 115 110 105 102 101 99 93 86 81 76 73 68 65 62 61 60 58
92 97 101 103 109 112 119 123 126 130 134 140 134 118 111 105 102 100 98 95 91 85 81 75 69 63 59 56 54 54 54 54
98 104 111 113 116 122 125 126 128 135 134 128 115 108 103 100 97 93 89 86 81 76 72 66 63 59 58 56 54 53 52 52
109 114 119 125 126 126 131 133 135 130 123 112 107 105 102 97 90 86 82 77 72 68 65 62 62 60 57 53 51 50 48 45

GFSFLT1_250_spd_006.txt.gz
Wind_Speed
34 35 37 38 38 38 36 40 44 45 45 43 45 48 51 53 55 56 57 59 61 64 66 69 69 70 69 69 70 70 68 64
34 35 38 39 36 37 39 43 47 45 45 49 52 54 56 58 60 62 64 67 69 71 69 68 70 72 74 74 74 75 74 78
36 38 41 41 42 44 46 46 45 47 50 55 56 59 60 62 65 68 70 71 71 70 70 72 76 77 76 83 85 87 86 88
39 43 46 47 49 44 44 48 52 54 55 57 59 61 66 68 70 71 71 71 72 74 76 81 83 85 87 90 92 95 96 96
44 47 47 43 44 47 50 53 54 55 57 60 63 65 68 69 69 72 75 76 79 81 85 87 87 89 92 96 96 99 102 101
44 40 43 48 49 52 52 53 56 57 60 63 66 68 71 74 77 78 83 86 88 91 93 96 99 100 104 106 109 110 110 109
42 48 49 51 51 53 56 59 62 66 67 72 75 77 79 84 87 91 94 97 98 100 105 107 111 114 117 116 117 112 111 108
50 52 52 53 56 59 63 66 70 69 76 80 82 86 89 92 95 99 103 104 108 110 113 119 121 121 123 124 117 111 107 106
51 51 54 57 61 62 64 67 69 74 79 84 87 91 94 97 100 106 109 113 117 121 123 125 126 129 126 119 107 103 100 96
54 57 60 61 61 63 69 73 76 81 85 90 94 99 102 107 111 113 117 122 125 126 130 131 130 123 113 105 100 96 94 90
57 59 61 60 63 68 74 78 82 87 93 98 102 105 111 113 115 119 124 127 129 132 132 130 123 110 104 99 94 93 94 92
59 63 62 65 72 78 83 86 91 96 100 104 108 112 118 121 126 128 130 132 132 131 126 115 108 103 99 97 94 90 86 82
65 66 70 75 81 86 90 94 98 104 107 111 115 119 125 129 130 133 133 131 124 116 109 105 102 100 99 94 88 82 77 75
69 73 77 82 87 92 95 100 105 109 114 118 123 128 131 133 133 132 128 119 111 108 104 102 100 96 90 84 78 75 72 69
74 79 84 88 93 97 102 108 113 118 123 126 130 132 135 135 127 119 111 107 106 103 100 95 91 86 81 78 73 68 64 60
81 85 88 95 98 103 109 114 118 124 129 132 130 130 125 118 110 105 104 104 102 97 89 84 80 77 74 70 65 61 59 57
85 91 97 100 103 108 116 120 128 136 136 128 124 116 110 105 105 104 102 99 94 87 81 75 71 67 66 63 62 58 56 54
93 97 101 105 111 116 122 132 134 130 122 117 110 105 105 104 103 99 94 88 83 79 74 70 66 63 61 58 57 55 51 46
97 101 107 114 119 127 130 134 128 119 114 107 105 105 103 100 96 90 84 79 75 72 68 65 62 58 54 52 52 50 47 43

GFSFLT1_250_spd_009.txt.gz
Wind_Speed
39 40 39 36 36 38 40 40 42 45 47 50 48 48 51 54 55 55 55 57 59 62 64 66 67 66 65 67 68 69 69 72
36 36 35 35 39 42 46 46 50 48 45 47 52 54 55 56 56 58 61 65 67 67 68 68 69 70 69 71 74 74 75 77
33 33 35 41 47 49 47 43 46 49 51 53 56 57 59 63 65 66 66 69 73 75 74 76 78 79 83 85 86 84 85 87
32 36 42 46 47 41 46 51 51 53 53 55 59 61 64 68 71 71 74 74 74 75 78 80 82 86 87 88 89 91 91 93
36 41 46 46 44 51 54 55 55 55 59 61 64 65 67 69 69 70 77 80 83 87 89 91 95 97 97 97 100 100 105 104
43 48 48 45 52 56 56 56 58 63 66 67 66 68 74 75 77 79 84 89 91 93 97 101 103 104 105 108 110 112 113 115
47 49 48 51 58 59 60 63 64 67 67 67 72 76 79 82 85 90 94 98 101 105 108 112 114 117 117 120 121 123 121 121
47 48 50 57 59 62 65 67 68 67 68 76 80 83 87 91 94 98 102 106 109 112 116 120 123 126 127 129 129 128 126 122
49 52 57 59 61 63 68 70 70 72 76 82 86 91 94 97 102 105 111 114 117 122 125 127 132 136 134 133 131 127 122 112
54 58 61 63 65 69 70 72 76 79 83 88 92 95 98 104 107 112 116 121 127 132 136 140 141 135 132 128 118 109 103 99
58 62 65 66 67 71 74 78 83 87 90 94 100 102 106 110 115 120 126 131 134 139 139 137 130 122 118 111 105 102 99 98
59 64 66 69 73 77 81 85 89 93 96 102 105 109 114 118 124 129 133 137 140 138 134 124 116 110 108 106 103 101 97 93
63 66 68 71 76 82 86 90 94 100 103 107 112 116 122 128 131 136 139 139 134 123 114 110 110 108 105 103 99 94 89 84
69 71 75 78 82 87 94 97 102 106 111 115 121 127 132 135 136 136 130 122 115 112 111 111 108 105 101 96 92 84 79 76
73 76 79 83 87 93 101 103 108 114 118 123 130 135 137 134 131 126 118 115 112 110 109 107 101 96 89 86 81 78 74 70
77 81 85 90 96 102 108 112 116 121 127 132 133 135 130 125 120 117 113 111 109 107 101 95 89 84 79 79 75 73 69 67
83 86 91 97 102 108 114 121 130 136 137 135 132 123 119 115 113 110 108 106 102 96 89 84 80 77 72 71 69 69 66 62
85 91 99 106 111 119 125 133 138 136 128 121 115 111 111 110 107 106 102 96 89 84 80 76 72 69 65 67 64 61 59 56
95 102 109 115 122 126 129 135 129 121 112 108 107 107 106 104 101 95 89 84 79 75 71 67 64 63 60 61 58 54 51 48

GFSFLT1_250_spd_012.txt.gz
Wind_Speed
30 34 38 36 37 36 36 40 46 45 49 49 49 50 54 56 58 55 61 61 63 63 65 67 66 66 65 66 65 67 69 70
32 38 35 35 36 37 42 44 51 47 46 52 58 57 56 55 59 61 66 66 67 67 68 69 70 71 73 75 77 76 79 82
36 38 40 37 40 43 45 48 51 51 55 57 58 59 60 62 65 67 65 66 69 72 73 72 75 79 82 83 84 84 85 88
40 40 41 41 45 48 50 52 52 58 59 59 63 65 67 69 70 70 68 73 76 79 82 84 85 88 92 92 95 97 94 96
40 42 45 48 51 53 54 54 56 64 66 63 65 69 70 73 73 73 78 81 84 86 89 93 95 96 99 101 103 106 105 106
39 43 46 49 53 56 57 58 62 67 68 69 71 71 71 75 77 80 85 90 93 97 101 102 104 106 110 112 113 116 118 122
43 46 48 52 56 57 59 66 69 68 69 74 75 78 83 86 89 91 94 98 102 107 109 111 115 118 121 123 125 126 129 130
47 51 53 49 55 61 65 70 72 74 73 74 80 85 89 91 94 99 102 106 111 114 118 122 124 127 130 132 134 137 135 131
51 51 51 55 57 59 63 69 74 76 79 80 83 88 93 96 102 106 110 115 120 124 127 131 135 136 137 137 136 131 123 116
49 52 55 59 60 63 68 72 77 81 84 88 91 95 99 104 113 116 120 126 130 133 137 140 141 134 130 127 123 117 111 110
51 54 56 61 63 67 75 79 81 85 90 95 98 102 106 114 120 125 131 134 136 139 141 138 134 127 121 117 112 112 107 105
53 57 61 64 70 76 81 84 86 91 94 98 105 112 119 126 131 135 136 134 137 134 128 123 118 113 111 109 107 105 102 98
58 63 67 70 74 79 83 86 90 95 101 107 114 121 129 135 135 136 133 132 128 124 121 118 118 115 112 108 105 101 93 87
62 67 72 77 81 85 89 93 98 103 110 117 124 130 136 136 138 132 125 121 120 119 119 117 114 110 105 100 95 87 83 79
68 71 76 82 87 91 96 102 108 114 120 123 132 136 134 135 128 119 117 116 116 115 113 110 105 99 91 90 85 80 77 75
72 78 82 87 92 97 102 108 115 123 130 135 131 126 120 117 119 115 114 114 113 110 105 98 93 86 81 81 80 75 72 70
76 81 87 91 96 101 110 117 122 130 134 135 133 127 118 109 107 109 107 104 100 96 91 84 81 76 74 74 73 68 65 64
81 86 90 95 103 110 116 121 130 135 133 130 129 124 117 110 107 103 97 93 88 84 79 76 75 71 66 67 66 64 62 58
86 92 96 104 111 116 122 127 133 133 128 123 120 112 107 104 102 96 91 85 81 77 74 72 69 67 62 61 61 59 57 51

GFSFLT1_250_spd_015.txt.gz
Wind_Speed
34 38 40 37 33 31 31 33 38 40 49 54 57 55 52 56 60 61 61 62 65 68 68 68 68 65 66 70 71 72 72 73
33 36 37 35 37 35 36 41 43 46 50 56 60 58 59 60 65 63 62 63 66 70 72 73 71 73 77 79 79 79 81 84
35 34 34 38 42 46 43 45 50 53 57 59 59 62 64 68 68 67 68 71 72 71 73 76 78 79 83 86 87 88 90 95
37 37 39 40 41 46 50 52 54 56 58 57 61 65 68 70 71 73 75 77 79 82 84 85 86 88 91 93 97 100 102 105
43 41 39 41 46 49 51 55 60 60 57 60 63 66 70 74 76 78 81 84 88 92 94 96 98 101 104 108 112 114 115 114
40 43 46 49 52 54 57 59 61 60 61 65 66 72 76 79 82 85 87 91 95 99 101 104 108 112 116 122 124 125 124 124
38 38 44 51 56 59 60 59 61 61 65 67 70 77 83 87 90 92 95 100 104 108 110 113 118 122 126 130 129 127 125 123
38 41 44 48 53 56 60 63 67 69 71 71 76 81 85 89 93 97 101 107 111 114 119 126 131 133 135 135 131 127 121 117
44 44 47 49 50 54 58 61 67 73 78 82 86 90 93 98 102 107 110 114 118 124 131 134 134 136 134 129 125 119 112 108
44 45 49 53 57 58 61 66 71 76 81 86 92 97 101 104 109 115 118 122 127 133 138 138 134 128 124 120 116 112 108 107
47 50 54 57 59 63 67 72 78 82 86 91 97 102 106 110 114 120 126 130 131 136 137 132 126 120 117 111 109 107 105 103
53 55 56 59 63 66 72 78 82 85 92 98 103 106 110 117 123 130 134 136 137 136 133 126 120 114 110 107 104 101 95 89
56 57 60 63 67 71 75 81 87 92 97 102 107 113 119 125 130 137 135 130 127 124 123 118 115 111 107 102 97 92 87 81
56 58 62 66 72 78 82 88 93 98 102 108 115 123 129 133 129 123 123 117 114 114 113 111 108 103 98 93 89 84 79 75
57 62 66 71 75 82 88 93 99 103 108 116 122 130 131 131 130 126 117 112 110 105 100 96 91 87 83 81 81 78 74 71
62 66 71 75 80 85 92 99 104 111 118 124 128 129 132 126 122 120 117 114 106 97 90 85 82 78 75 75 75 71 70 68
65 69 74 80 86 92 99 105 112 119 124 127 130 131 129 125 118 110 110 106 98 89 84 78 78 75 72 71 71 68 65 64
71 76 82 88 93 99 105 110 117 121 126 131 132 128 123 117 114 105 99 94 89 84 80 77 76 73 68 64 65 64 61 59
77 84 89 94 99 106 109 115 123 127 131 129 128 124 117 112 107 99 92 87 84 82 78 74 70 68 65 62 59 57 56 53

GFSFLT1_250_spd_018.txt.gz
Wind_Speed
44 42 47 46 42 37 39 45 50 49 50 53 56 57 60 61 66 68 64 63 64 67 69 69 69 71 74 75 75 75 74 76
39 42 43 44 39 37 43 48 52 51 50 53 57 60 63 66 67 65 65 66 67 69 72 74 76 78 79 81 82 83 84 85
38 40 42 45 42 45 46 47 49 50 53 57 62 65 68 71 67 67 70 71 74 76 79 82 84 85 87 88 90 91 93 94
40 41 42 43 44 45 47 48 51 53 57 61 65 69 70 69 71 73 77 80 82 85 88 90 90 90 92 94 97 99 101 104
39 41 42 43 44 46 50 52 54 57 61 64 66 68 70 72 75 80 83 86 90 93 94 96 99 101 103 106 108 111 113 115
46 44 44 44 46 50 53 54 56 60 62 63 65 67 70 75 81 86 92 96 98 101 104 107 109 112 114 118 121 125 128 129
48 50 51 50 53 53 53 54 58 59 60 64 67 71 76 80 86 91 95 100 103 107 110 114 118 122 127 131 134 135 134 132
42 44 44 48 51 54 56 56 57 61 64 67 72 76 80 85 89 94 99 105 110 114 117 120 124 129 136 139 137 133 129 125
41 39 44 47 52 56 60 62 65 68 71 74 78 81 85 90 95 100 105 111 116 121 124 128 132 136 133 130 130 127 124 118
43 45 48 51 55 57 59 64 66 69 72 75 79 84 90 94 100 107 112 117 122 126 130 131 131 129 128 130 125 119 114 107
45 48 49 52 55 59 62 64 67 71 75 80 85 92 97 103 109 114 117 121 128 129 131 128 128 125 121 119 115 109 104 100
45 47 51 55 58 60 62 67 72 76 81 86 91 98 104 110 115 118 123 127 127 125 123 123 122 118 113 109 102 98 94 91
50 52 55 56 59 63 66 71 76 81 86 92 99 104 108 115 120 125 129 126 124 123 123 120 114 108 103 98 93 89 84 79
54 55 57 59 63 67 71 76 82 87 94 99 105 111 117 121 126 131 128 125 119 121 119 111 101 94 89 86 82 79 75 74
59 60 60 62 66 70 75 81 86 93 98 105 112 117 122 126 128 124 125 121 117 114 110 102 92 86 81 78 77 75 72 68
62 61 63 65 69 74 79 87 92 97 105 112 116 122 127 126 124 121 120 117 111 105 97 91 86 82 78 76 74 71 68 65
60 60 63 69 74 79 86 93 99 105 112 117 125 127 127 126 122 118 115 111 102 96 89 83 80 77 74 72 70 68 65 61
61 65 70 75 81 88 95 100 106 112 118 124 129 130 126 121 119 112 107 101 94 86 82 78 76 73 71 69 65 63 61 59
67 72 79 83 90 96 101 107 113 120 123 128 130 126 123 119 113 105 97 90 85 80 77 74 71 68 66 63 61 58 55 52

GFSFLT1_250_spd_021.txt.gz
Wind_Speed
60 57 51 48 51 46 37 42 49 56 64 66 67 67 67 69 65 65 66 68 70 73 75 74 72 73 74 77 78 80 79 79
47 48 48 49 49 37 40 48 55 60 66 66 69 70 69 68 67 69 71 73 75 75 73 75 74 77 79 80 81 84 88 89
45 48 49 47 41 46 46 52 57 61 63 66 69 69 69 70 72 74 75 75 75 77 77 78 79 82 86 89 89 90 92 95
40 43 47 50 52 55 55 56 59 58 61 65 66 68 69 71 73 74 76 79 81 81 83 86 88 90 93 96 98 100 102 105
39 44 48 51 51 52 51 53 55 57 59 63 66 68 70 72 74 78 80 81 83 87 89 92 97 102 103 107 111 114 115 116
45 50 51 51 50 50 54 54 55 58 61 65 68 71 73 76 79 80 82 86 89 93 100 103 107 109 113 116 119 120 120 123
42 45 45 43 41 47 52 54 57 60 63 65 68 72 74 78 80 83 88 91 96 100 105 109 113 117 119 123 125 126 125 124
42 44 44 44 44 50 53 56 59 62 65 68 71 74 77 80 83 87 92 96 100 104 109 113 117 123 127 128 128 126 125 123
43 47 50 51 51 54 56 58 62 66 68 71 73 76 79 82 87 91 96 101 106 111 116 121 124 128 128 127 126 124 125 123
40 43 45 48 52 55 57 60 63 66 69 71 74 78 82 87 91 97 103 108 113 117 122 125 128 129 128 123 122 123 120 117
42 45 48 50 53 55 59 62 65 67 68 72 76 81 86 91 96 103 109 114 119 123 128 128 126 123 121 121 120 118 111 106
46 48 50 53 56 59 60 63 65 68 71 75 79 83 88 94 102 108 113 119 125 126 129 126 121 118 117 116 112 105 99 94
51 52 54 55 57 60 62 64 66 69 74 79 84 89 95 103 110 115 121 127 127 127 122 119 115 115 111 106 100 95 89 83
55 57 58 59 60 61 62 65 68 73 79 86 92 100 106 112 118 122 127 124 122 120 114 111 109 106 102 96 91 84 79 77
58 59 60 59 60 62 65 69 75 82 89 95 102 107 112 118 121 127 125 120 115 112 109 104 101 96 92 87 83 79 75 72
58 60 61 62 64 67 72 77 82 90 97 102 107 113 118 123 128 127 123 116 111 106 104 98 93 88 83 79 77 74 72 70
58 60 63 65 69 73 79 85 90 98 103 109 114 119 124 129 126 125 119 116 110 106 98 91 86 80 76 75 73 70 69 67
60 62 65 69 74 79 86 92 98 104 109 114 119 123 130 129 127 122 121 111 106 99 91 85 79 75 72 72 71 67 63 61
64 68 73 77 81 87 93 99 105 110 114 119 123 130 131 127 124 121 115 111 101 91 84 79 75 70 68 67 65 61 58 56

GFSFLT1_250_spd_024.txt.gz
Wind_Speed
70 68 68 60 56 57 49 45 37 33 63 57 65 68 71 72 74 75 77 79 78 75 75 76 77 79 81 81 80 80 78 78
58 52 49 49 49 48 42 38 37 63 63 66 69 72 74 78 79 80 79 79 77 77 77 78 80 81 80 82 84 85 87 87
43 43 43 41 34 32 42 44 49 55 61 64 70 74 78 79 80 80 80 80 79 79 80 80 81 84 86 87 87 89 92 93
38 38 40 42 46 49 53 56 59 63 65 68 70 72 73 74 76 78 79 80 81 81 83 86 88 89 90 91 93 94 97 102
37 39 42 44 46 49 54 58 60 62 65 65 66 69 72 73 74 77 79 82 85 87 88 90 92 93 96 98 100 105 108 112
36 38 38 37 38 41 44 47 52 57 58 60 64 67 71 73 76 80 82 84 86 88 90 91 96 98 103 106 110 115 118 121
30 34 37 39 41 44 48 52 55 58 60 62 65 68 70 73 76 79 81 83 86 90 94 98 101 105 109 113 118 122 126 130
33 36 39 41 44 48 52 55 58 61 63 64 66 69 71 74 76 79 83 87 91 95 97 102 108 113 118 123 124 126 127 127
37 40 43 46 48 50 53 56 59 60 62 64 67 70 72 75 78 82 87 90 95 101 106 112 118 121 124 126 127 123 122 122
42 44 46 49 52 55 58 61 62 64 66 69 72 74 75 78 81 85 90 96 102 108 113 116 117 120 121 121 120 116 115 115
45 48 51 54 56 58 62 64 65 66 68 70 71 72 75 79 84 91 98 104 107 110 111 114 116 117 115 114 113 111 110 109
49 52 54 57 59 60 62 62 63 64 65 67 70 73 78 84 90 97 102 107 110 111 113 115 115 115 114 110 109 106 102 97
51 53 54 54 57 59 60 61 62 63 65 68 73 79 86 92 99 106 110 114 116 117 115 114 116 112 109 105 100 96 92 89
54 53 53 54 55 56 59 62 63 66 70 75 82 88 94 102 108 114 117 118 119 116 117 116 113 107 100 94 90 88 85 82
56 55 54 55 57 60 62 65 68 73 78 83 91 98 104 109 116 121 120 123 120 120 119 115 108 99 94 89 86 83 79 76
61 60 58 58 59 62 66 70 75 81 86 92 99 105 111 118 123 124 127 125 123 123 117 111 101 94 89 85 82 78 74 70
66 65 63 61 63 68 74 79 84 89 93 100 107 111 117 124 125 127 126 126 123 119 110 100 94 90 85 81 78 74 70 66
71 71 67 67 70 76 81 86 91 95 100 107 111 117 123 127 128 127 127 124 120 111 104 96 91 86 80 76 74 71 66 62
74 75 74 74 77 82 87 92 97 102 107 112 117 122 127 129 125 127 124 121 113 107 100 93 87 81 76 72 69 67 63 58

GFSFLT1_250_spd_030.txt.gz
Wind_Speed
55 54 55 59 61 61 58 56 55 58 49 44 46 50 53 57 57 62 68 71 78 81 88 92 94 98 103 100 90 86 85 83
52 52 54 56 60 57 54 49 50 49 47 48 56 56 62 64 63 65 73 79 82 87 92 95 96 88 87 89 88 87 86 86
52 56 50 48 47 47 46 45 44 42 42 45 50 57 64 71 75 78 80 84 88 88 87 87 88 88 87 86 86 87 85 82
44 42 39 40 42 41 40 42 43 43 44 47 52 56 59 70 73 73 73 76 80 81 83 85 86 88 87 85 82 82 85 90
34 37 37 34 33 32 34 37 41 44 47 50 53 56 59 64 68 71 74 77 80 81 82 83 82 81 80 81 86 90 94 97
29 25 24 28 30 33 37 40 44 48 51 55 58 62 65 69 72 74 75 75 74 72 71 71 74 79 84 86 92 96 101 105
20 23 28 32 35 38 41 44 48 51 55 58 61 65 67 69 69 69 68 67 66 68 73 77 81 85 89 95 98 105 107 109
25 29 31 33 37 40 43 45 48 51 54 57 59 62 64 66 66 65 65 66 69 74 79 83 87 91 96 100 105 108 108 110
25 29 32 35 38 42 44 46 49 51 54 57 59 61 63 65 64 64 67 72 76 81 86 89 93 99 102 105 106 108 107 109
27 29 33 37 41 44 46 49 51 53 56 58 59 61 63 65 66 68 71 76 81 86 90 94 99 104 106 108 107 109 111 110
27 31 35 39 43 46 49 53 55 55 58 62 63 63 63 64 66 70 75 82 86 92 97 101 106 109 110 109 109 112 110 107
34 40 44 47 50 54 56 58 59 60 63 66 68 67 65 67 71 77 84 89 94 99 102 106 105 107 110 111 113 111 108 105
40 44 48 52 55 60 63 65 65 65 68 70 71 70 69 72 78 84 91 96 100 103 105 104 104 104 108 109 111 108 104 100
45 48 51 55 59 64 67 71 70 70 72 74 72 70 73 79 84 92 97 101 105 109 107 107 106 110 110 111 108 104 99 92
49 53 56 60 64 68 72 74 74 76 78 77 75 77 80 85 92 97 103 105 109 109 107 108 110 112 111 107 103 97 89 84
55 58 61 64 68 73 76 77 78 80 81 81 80 83 87 93 99 104 107 111 108 107 109 110 111 110 107 103 95 88 84 79
60 63 66 69 74 78 80 82 83 86 86 85 85 88 93 100 105 110 112 111 108 107 109 110 108 105 103 95 87 83 79 74
65 69 73 76 80 83 85 87 87 88 86 87 89 94 101 107 111 114 112 107 108 109 110 108 105 101 93 88 83 79 73 72
72 76 80 81 85 88 88 88 89 87 88 92 96 101 107 112 116 112 107 108 110 110 110 106 101 95 89 84 80 75 71 70

GFSFLT1_250_spd_033.txt.gz
Wind_Speed
46 49 48 49 55 58 61 60 59 62 65 69 66 65 65 62 64 64 62 67 71 76 79 83 84 86 90 91 95 102 101 95
50 48 57 58 59 60 61 61 66 65 64 60 62 62 62 64 65 67 70 73 77 81 86 89 92 95 96 97 94 91 92 92
58 60 54 57 59 60 60 57 52 51 50 49 49 49 51 54 58 65 68 72 75 77 79 85 92 93 87 88 91 89 84 80
56 58 61 61 55 50 47 41 43 41 41 42 45 47 50 54 58 62 67 71 75 79 82 85 87 88 88 86 80 77 80 84
48 45 44 43 41 38 34 33 35 39 43 47 50 54 57 61 64 68 70 75 78 80 80 81 80 77 74 75 80 82 86 89
37 35 33 30 26 28 32 35 40 43 47 49 51 53 54 55 57 60 64 66 69 71 71 70 69 70 75 81 86 91 97 101
25 22 21 24 28 31 35 38 40 44 47 50 53 54 55 56 59 63 66 68 69 67 66 68 73 77 81 87 94 99 103 107
17 19 22 26 29 30 32 34 38 42 47 52 55 57 60 62 64 64 65 67 68 68 70 72 77 82 91 96 100 104 108 111
19 20 23 25 27 31 36 41 45 47 51 55 58 59 60 63 65 68 70 70 70 70 74 79 84 92 98 104 105 108 109 108
21 23 26 29 34 38 42 45 49 52 56 60 64 65 68 69 70 73 73 73 73 74 79 84 92 98 104 107 107 109 110 108
26 28 32 35 39 42 46 49 53 58 61 66 69 71 72 73 75 75 75 76 78 81 86 93 99 102 107 108 105 106 108 109
32 34 37 38 42 46 50 54 57 61 65 70 72 74 76 76 78 78 77 79 82 87 93 99 103 107 106 104 103 106 108 107
38 40 42 44 47 51 56 59 63 68 72 75 78 80 79 79 80 80 80 85 90 94 100 104 107 108 105 106 110 108 107 105
41 44 47 51 53 57 61 66 71 75 79 81 82 81 82 84 83 83 87 92 96 101 104 109 109 107 108 109 108 106 103 100
45 49 54 56 60 64 68 73 78 80 83 86 84 82 84 84 86 90 94 99 102 106 109 109 106 107 109 109 106 102 100 96
50 56 60 63 66 70 75 78 81 84 87 87 85 85 87 88 91 97 100 104 108 111 112 108 108 107 109 106 104 102 97 92
54 60 66 68 71 77 79 81 84 87 87 86 86 89 90 92 97 101 106 108 113 112 109 108 109 107 109 101 100 96 91 85
59 65 70 73 76 79 80 84 88 88 87 86 89 91 94 98 103 106 110 112 112 109 108 109 111 106 102 99 93 90 86 77
66 70 74 77 78 81 85 89 88 87 87 89 90 95 100 103 106 110 113 111 109 108 109 111 110 102 104 97 91 88 79 72

GFSFLT1_250_spd_036.txt.gz
Wind_Speed
46 47 49 49 51 57 55 56 60 61 62 66 69 72 74 76 78 78 72 71 67 69 71 73 74 78 81 85 87 89 90 88
51 48 46 48 55 55 57 59 64 68 72 73 74 74 73 68 66 64 62 60 62 65 68 71 77 79 80 84 85 86 86 83
38 46 53 58 59 55 61 65 67 64 65 67 65 58 55 51 52 55 59 63 67 70 73 73 74 77 78 77 76 75 75 73
44 50 55 58 61 61 58 58 59 54 54 52 50 47 48 51 54 57 60 63 65 66 67 69 70 71 73 73 71 69 69 72
51 55 57 56 56 57 57 52 47 46 42 42 44 46 47 49 52 54 58 62 65 67 68 70 71 73 74 74 75 75 77 77
49 48 48 48 46 45 41 38 35 33 38 40 40 40 42 46 50 54 55 60 64 67 69 71 72 74 76 76 75 77 81 85
37 37 38 37 35 31 31 25 32 34 36 39 41 46 50 54 59 62 65 66 67 66 69 71 73 75 75 77 79 83 89 96
30 26 27 27 28 29 29 28 33 37 41 45 48 53 55 60 65 67 71 73 73 72 74 75 75 75 78 82 88 92 98 105
24 26 26 27 28 29 31 35 37 43 46 49 53 56 62 66 72 76 77 79 78 76 77 77 78 82 88 93 98 103 106 109
25 26 28 29 31 34 36 40 42 48 50 53 57 62 68 73 77 80 83 84 80 79 79 80 84 90 95 101 104 107 108 109
27 29 30 33 36 39 42 45 48 52 56 61 64 69 76 79 82 85 87 85 82 83 84 87 91 98 102 106 109 108 109 105
31 33 36 39 42 45 50 52 53 57 61 67 71 76 80 82 85 88 86 85 85 86 89 93 99 104 108 110 109 107 107 106
38 41 41 44 46 50 55 59 61 63 68 71 77 82 83 86 89 88 86 86 88 91 94 99 104 107 109 109 109 106 107 107
41 42 45 48 51 52 57 64 68 70 74 78 81 83 86 90 92 89 86 89 93 96 101 105 107 109 110 110 107 108 107 107
46 49 49 52 55 57 60 64 72 76 79 81 82 86 91 94 92 89 90 94 98 102 105 107 110 110 111 109 109 109 107 105
51 55 57 56 58 61 66 69 74 79 81 82 86 90 96 94 91 92 96 100 104 106 108 110 110 109 109 109 111 110 106 103
52 56 57 59 61 64 69 73 77 78 80 86 89 94 96 94 93 95 101 106 108 108 110 111 109 109 110 111 110 108 106 100
58 59 64 68 69 69 73 75 75 80 85 89 94 98 97 95 97 102 107 109 110 111 109 107 109 111 116 110 107 106 102 97
62 65 69 72 74 75 75 80 82 86 89 94 99 98 97 99 104 109 111 113 112 112 111 112 113 115 113 112 105 99 98 93

GFSFLT1_250_spd_039.txt.gz
Wind_Speed
40 41 42 43 47 50 57 63 64 62 67 69 71 76 78 74 74 77 81 85 86 87 79 73 73 74 75 75 76 76 76 76
44 48 53 53 50 49 55 51 58 63 67 66 59 67 73 70 68 69 71 72 72 70 69 71 72 72 72 72 72 72 74 78
27 43 53 56 56 49 56 60 57 60 62 63 67 69 72 72 69 67 64 61 62 59 59 59 63 67 69 71 72 74 78 81
31 31 34 42 45 54 58 60 60 67 69 68 67 64 61 57 56 56 54 52 50 55 60 64 66 70 74 75 75 76 77 77
43 43 43 43 47 50 54 56 58 60 59 56 55 53 50 49 46 47 49 49 52 58 65 70 74 77 79 77 77 78 77 76
42 45 45 46 49 50 51 51 50 49 47 49 45 44 45 44 46 50 51 57 63 68 72 74 78 82 83 80 80 78 77 80
38 40 40 40 41 42 42 41 43 45 43 42 45 45 44 45 48 52 55 61 66 72 75 78 82 86 83 79 80 81 84 88
33 35 36 36 36 36 35 38 43 42 42 45 48 47 47 48 52 58 63 68 73 78 80 84 89 89 83 82 85 90 94 97
33 33 32 32 32 35 36 37 40 43 46 48 52 54 53 54 61 66 71 77 80 83 86 91 94 89 86 89 92 97 101 106
31 28 29 32 31 36 37 38 41 47 52 55 57 61 59 63 67 71 78 83 84 86 91 96 95 90 90 93 98 104 108 110
29 30 32 34 36 38 42 43 45 51 56 60 63 67 67 70 74 79 83 84 87 90 95 97 94 92 94 98 105 108 111 110
33 33 35 38 42 45 47 49 50 53 57 62 65 69 72 76 79 83 83 86 92 93 99 100 96 95 100 104 110 113 112 109
33 34 36 40 42 47 52 55 54 55 56 61 66 70 74 77 81 82 84 89 93 99 101 98 96 99 105 110 112 111 107 108
36 37 38 41 44 49 53 56 57 59 61 64 67 71 73 75 79 85 89 92 97 101 100 99 99 104 110 113 112 108 107 107
39 40 43 44 46 50 54 58 63 67 69 70 70 72 77 81 86 91 93 98 102 101 100 101 106 111 113 113 111 107 108 108
44 46 50 53 53 55 58 63 67 71 70 73 76 79 83 88 91 94 100 103 101 101 104 110 113 112 114 110 108 107 108 106
52 53 55 57 60 63 64 68 72 73 75 80 84 88 91 94 96 101 105 101 103 107 112 116 113 109 108 108 109 109 108 104
58 61 60 62 64 69 72 72 75 77 80 84 90 93 95 98 103 104 102 104 109 114 117 117 116 113 110 110 109 107 103 102
60 61 65 68 71 74 77 79 80 83 85 91 94 97 100 103 103 103 107 112 117 118 115 113 110 109 111 111 111 109 104 101

GFSFLT1_250_spd_042.txt.gz
Wind_Speed
36 45 46 48 50 52 58 64 68 63 71 73 75 73 72 74 77 77 82 88 87 86 82 82 80 69 64 67 66 69 71 73
46 45 45 49 53 55 47 48 48 54 60 64 66 69 72 73 79 79 81 80 81 78 79 72 66 63 62 64 66 70 73 76
44 47 45 47 50 47 49 53 57 55 57 60 65 69 69 71 73 77 80 80 78 75 68 63 62 61 65 69 72 73 78 82
30 39 43 45 47 48 52 54 56 62 63 64 65 68 70 68 75 76 76 71 65 61 58 61 63 66 71 74 76 77 81 86
32 33 35 37 40 37 41 47 49 55 55 54 56 61 61 63 66 65 62 61 59 61 61 63 66 71 76 80 81 83 86 89
37 38 40 42 43 47 50 50 51 49 55 58 60 60 61 60 60 59 60 63 62 62 65 67 72 77 81 83 85 89 92 95
40 43 44 44 43 44 45 45 50 53 55 55 52 52 55 56 58 60 63 65 65 68 71 74 76 81 85 87 89 92 95 99
35 34 36 35 34 33 37 43 47 44 44 47 49 52 55 58 61 63 65 68 70 74 75 77 80 84 85 88 92 94 99 97
37 31 30 30 33 33 36 37 41 43 46 49 51 54 58 61 64 64 67 69 70 73 75 80 83 83 89 92 95 100 100 96
30 29 29 38 37 34 37 41 44 45 48 50 55 57 60 62 62 64 67 69 72 73 76 79 84 89 92 97 103 101 99 99
29 31 36 36 36 38 41 40 42 41 49 53 57 60 58 59 62 67 69 70 70 74 80 85 90 93 97 103 103 102 103 106
29 33 33 35 38 39 39 39 41 45 50 55 59 62 64 68 69 68 72 75 79 84 88 92 96 98 103 105 103 105 110 114
30 31 35 36 39 40 41 43 46 50 53 57 62 66 70 72 73 74 77 81 85 90 93 97 101 104 105 104 107 112 114 112
29 33 36 39 42 45 50 51 53 56 59 62 65 69 71 73 75 77 81 85 90 92 96 102 104 103 104 109 113 112 109 109
31 35 38 42 45 48 52 56 59 62 64 67 68 69 72 75 78 81 85 89 93 97 103 102 101 105 110 113 113 109 109 107
35 38 42 45 48 52 55 56 58 62 65 66 70 74 76 80 84 87 90 94 100 103 100 101 107 112 113 113 110 109 109 109
41 45 47 49 52 56 57 60 63 64 65 71 74 79 83 85 87 90 96 101 100 99 103 110 113 113 112 111 111 111 112 112
48 51 52 54 57 60 64 68 67 68 73 77 81 84 88 90 91 97 102 100 101 106 112 113 114 112 111 110 112 113 113 110
52 54 57 60 62 64 69 70 73 77 80 84 88 91 91 93 98 103 102 104 110 113 116 114 113 112 112 113 113 112 109 106

GFSFLT1_250_spd_045.txt.gz
Wind_Speed
33 31 36 42 44 47 51 55 62 66 68 65 61 60 61 70 72 72 75 77 78 78 80 79 82 84 83 81 79 76 71 72
36 38 40 42 44 49 54 61 58 56 58 59 58 62 60 67 70 70 66 68 74 75 76 80 84 83 75 76 74 73 74 75
43 42 44 41 38 44 46 51 55 61 60 59 60 57 62 63 67 67 71 75 76 78 75 72 73 72 74 71 73 77 79 80
40 45 45 45 47 44 48 49 54 61 62 65 70 69 72 74 74 72 71 68 69 69 68 71 70 72 75 77 78 80 82 85
38 38 40 41 45 41 39 39 46 54 50 52 53 55 53 56 61 62 62 64 65 67 69 71 73 79 81 81 83 85 87 87
36 40 43 44 45 46 50 48 48 51 54 58 57 57 57 58 57 59 61 60 65 68 72 75 79 81 80 80 81 80 80 82
35 38 40 39 43 44 45 48 49 51 50 47 47 50 51 53 54 57 60 64 68 71 74 75 74 75 76 79 78 79 82 86
34 36 36 37 38 42 43 41 35 36 39 42 44 47 51 54 56 60 63 67 69 70 70 71 74 73 73 74 79 84 87 90
37 38 38 37 37 35 31 29 31 35 39 43 48 51 56 57 57 61 62 63 66 71 73 71 72 75 79 84 88 90 93 96
32 33 34 31 28 27 29 31 36 39 43 49 52 55 56 55 59 62 65 68 72 71 72 74 75 79 83 88 91 95 99 102
32 30 31 29 29 30 32 35 37 44 49 52 53 50 54 58 61 65 68 71 71 72 76 78 81 84 88 92 98 101 100 100
27 29 30 30 29 31 36 40 43 46 48 48 50 54 57 59 62 67 70 72 74 76 79 82 86 88 93 100 102 101 103 108
30 31 30 30 33 37 39 41 43 43 47 51 55 57 59 63 66 67 70 73 78 83 85 87 89 95 101 102 101 106 110 111
31 31 31 34 35 37 38 38 40 47 52 56 60 62 64 66 66 70 74 79 83 87 87 90 95 101 101 102 106 110 111 109
30 31 32 34 36 37 40 42 43 52 59 63 63 64 67 68 71 75 81 84 88 88 91 95 101 101 102 106 109 110 109 108
31 33 34 37 37 39 42 50 56 60 63 64 66 68 69 73 77 82 85 89 89 91 95 101 102 104 108 110 111 112 111 111
34 35 37 40 43 47 53 56 60 63 64 66 68 69 74 78 83 87 90 90 92 95 102 103 104 109 112 115 116 113 113 113
36 39 41 44 49 53 57 59 62 65 66 68 70 74 79 84 87 89 91 93 96 103 104 105 110 115 119 119 116 115 115 115
40 43 46 51 54 57 59 62 65 67 69 72 76 79 85 88 90 93 92 94 101 104 106 110 114 118 118 118 117 115 114 114

GFSFLT1_250_spd_048.txt.gz
Wind_Speed
25 29 34 34 37 37 38 41 40 42 53 58 57 56 61 63 65 71 70 70 70 69 71 69 73 78 75 77 77 75 74 76
28 24 27 29 28 33 37 42 41 44 47 54 62 68 67 64 69 65 69 69 70 73 75 79 85 76 71 73 74 72 74 78
23 28 30 30 34 34 35 40 43 45 49 52 56 59 62 63 62 64 69 73 74 72 74 77 72 72 71 72 72 74 79 82
31 33 36 33 31 35 40 41 42 43 46 52 54 56 62 63 71 69 65 62 62 67 66 65 68 68 69 72 76 80 81 81
34 35 35 42 40 35 42 43 47 43 44 47 52 46 48 53 55 58 59 60 59 62 63 64 66 68 72 75 75 76 79 82
29 31 28 31 35 39 43 41 42 44 45 47 50 54 60 58 59 60 59 58 59 58 63 67 68 70 71 74 77 78 79 80
24 24 25 28 31 36 40 42 47 50 50 52 54 55 53 56 55 52 52 54 58 62 65 67 69 71 74 77 77 76 78 81
26 26 28 31 33 36 39 42 44 45 48 49 46 45 43 52 52 50 56 60 63 64 66 69 69 74 72 73 77 83 85 86
29 30 32 35 38 40 44 44 43 41 39 37 38 41 42 51 54 57 61 63 62 66 70 70 72 71 76 80 83 85 86 88
34 36 37 37 37 39 38 35 29 29 31 35 40 42 46 54 57 64 60 63 65 66 69 74 73 78 82 84 88 88 89 93
34 38 40 39 36 33 29 28 27 32 35 38 44 44 48 58 58 59 64 64 65 68 71 73 78 81 85 88 90 91 94 99
38 36 33 31 30 30 31 29 29 32 38 41 45 45 57 55 60 65 67 68 70 73 74 78 82 85 89 91 92 96 99 106
34 32 30 30 29 30 30 31 31 35 39 41 47 52 56 58 67 67 70 71 73 75 81 84 86 89 92 93 96 100 105 107
30 30 30 29 30 30 30 31 34 39 41 46 51 51 56 65 68 70 70 72 74 78 83 85 89 92 95 97 100 106 108 110
31 31 29 30 31 29 30 36 37 41 47 51 55 60 64 68 70 70 73 76 79 83 87 91 92 96 98 99 105 107 110 114
31 30 31 30 30 33 35 39 44 48 51 56 60 65 68 71 72 74 77 79 83 87 90 93 95 98 100 105 108 108 113 116
33 35 33 31 34 37 42 45 48 53 57 62 66 69 71 73 75 76 78 82 86 90 93 96 99 101 104 108 108 112 116 119
38 35 34 35 39 42 45 48 53 58 62 66 68 71 74 76 77 79 82 86 90 93 97 100 101 104 110 109 113 117 120 120
36 36 37 41 43 46 49 54 59 63 66 68 72 75 77 77 79 83 87 90 94 97 99 102 104 110 109 112 118 121 120 122

GFSFLT1_250_spd_051.txt.gz
Wind_Speed
25 26 24 24 28 33 35 35 38 45 52 51 54 54 59 58 58 57 54 58 58 62 69 73 71 73 78 78 76 71 71 69
17 16 19 25 27 26 29 34 38 40 48 43 41 43 47 55 67 66 68 71 75 71 70 72 73 75 72 74 69 67 65 65
23 22 20 19 20 24 24 31 33 38 40 44 44 43 46 51 55 62 60 62 64 68 68 68 69 71 71 68 68 66 67 70
31 28 27 26 24 29 30 31 33 36 37 38 39 41 44 49 51 54 57 54 58 57 62 64 66 65 63 64 65 67 69 73
27 28 28 32 33 36 35 39 33 34 37 40 44 47 46 47 51 54 53 56 57 62 63 63 61 62 64 65 66 68 72 75
34 37 38 30 30 30 31 29 30 34 38 41 41 45 48 50 52 55 59 61 59 59 58 57 61 66 67 67 70 74 76 79
24 25 26 23 26 27 28 31 33 36 37 42 45 45 47 51 53 52 51 53 56 55 56 59 67 68 68 72 74 76 79 79
19 20 23 25 28 28 29 31 33 36 37 41 43 45 45 43 40 44 48 53 55 56 59 65 69 70 75 75 77 78 79 82
20 22 24 27 28 29 32 35 37 38 40 39 38 38 36 35 39 45 52 56 59 61 63 68 71 74 73 74 78 79 82 86
25 25 27 30 31 34 36 37 39 39 37 36 33 31 34 40 44 50 54 61 62 62 65 71 74 76 75 76 77 82 86 89
28 30 31 33 33 36 38 38 35 33 31 31 31 34 39 43 46 52 60 63 65 66 71 78 78 77 79 78 82 86 89 92
31 33 34 35 38 36 32 31 30 29 30 28 31 35 39 43 49 57 61 65 68 73 77 81 80 79 83 86 87 91 94 97
34 36 36 37 34 33 32 32 30 30 31 32 34 38 43 48 56 57 59 65 72 76 79 82 83 84 86 91 93 95 98 100
37 37 38 32 31 31 33 34 32 32 33 36 40 43 50 52 58 60 67 72 75 78 81 84 87 86 88 91 95 98 101 103
37 38 35 33 31 32 35 35 35 37 41 42 45 49 54 58 61 66 69 73 78 81 85 87 89 89 93 95 99 102 104 107
36 32 34 34 33 36 37 38 41 41 43 48 52 55 58 62 65 68 72 77 80 84 87 88 89 93 95 98 101 103 105 109
38 37 35 35 37 39 41 43 45 47 49 52 55 59 61 64 68 73 77 79 83 86 87 89 93 97 98 100 102 105 109 112
41 41 42 42 42 43 43 44 47 49 52 55 58 61 64 68 73 77 78 82 85 86 89 93 96 99 101 103 106 108 111 112
43 44 45 46 46 45 44 45 47 51 54 58 62 65 69 73 76 78 83 83 85 88 92 96 98 102 104 106 109 112 111 117

GFSFLT1_250_spd_054.txt.gz
Wind_Speed
19 20 22 22 19 29 30 31 33 43 52 63 70 65 58 55 55 59 57 53 56 56 60 66 69 71 72 76 81 81 76 72
22 23 20 20 18 22 30 32 35 37 43 52 52 42 44 52 58 54 54 56 60 63 67 71 69 71 72 74 70 67 71 74
14 15 19 26 25 27 25 23 26 33 41 41 45 46 46 45 52 57 58 60 60 60 63 67 69 68 65 66 68 72 68 65
23 25 23 23 22 25 26 25 24 25 26 30 39 43 43 43 46 49 49 54 55 58 61 58 61 65 68 67 67 67 63 68
25 24 28 28 28 28 29 27 29 35 34 33 34 36 38 40 44 45 47 49 51 54 57 61 63 67 65 67 66 64 66 70
28 30 32 34 35 32 34 37 34 34 35 36 39 39 40 42 45 49 50 54 58 59 61 63 63 63 64 64 64 69 71 73
29 32 35 35 37 35 31 29 27 30 33 38 40 44 42 44 45 47 49 52 54 55 55 57 58 60 62 67 68 73 75 77
22 25 25 27 28 27 28 30 31 34 35 37 37 39 41 42 43 46 47 46 46 52 53 54 59 62 62 68 72 75 78 82
22 22 23 25 29 33 33 34 33 35 35 36 38 38 40 44 42 42 37 39 42 59 57 59 62 63 67 71 74 79 83 88
22 24 25 27 30 31 33 35 36 36 39 39 38 38 38 39 39 38 42 45 48 55 60 63 67 70 72 76 80 84 86 88
28 30 30 32 32 32 34 36 38 39 39 39 41 41 39 37 42 46 46 46 51 56 62 67 72 74 76 82 87 86 87 92
26 26 29 31 32 33 35 38 40 42 38 39 42 41 41 42 45 44 46 50 55 61 66 72 75 76 82 88 88 88 89 94
28 29 30 33 36 38 38 40 38 38 40 41 42 42 41 42 44 48 51 56 60 66 70 72 74 80 85 88 90 91 94 97
33 34 35 37 39 39 39 39 41 41 42 43 44 44 43 45 49 53 57 61 66 68 73 75 80 85 87 88 91 94 98 100
40 40 39 40 41 42 43 42 44 45 44 45 46 46 48 51 54 59 63 67 70 73 78 80 83 86 90 92 94 97 100 102
47 44 41 41 44 45 44 44 42 43 45 46 48 49 52 55 58 63 67 71 74 76 81 82 86 90 93 95 98 100 102 105
46 45 41 41 42 44 44 44 44 46 49 51 53 56 58 61 64 68 71 74 76 79 83 87 91 93 96 99 101 102 105 107
37 38 41 41 41 44 46 47 47 48 51 53 55 58 61 63 67 70 72 76 79 83 87 90 93 97 100 100 102 104 106 107
36 39 41 43 45 46 48 49 49 49 50 51 52 55 60 64 68 71 75 79 83 87 89 92 95 98 99 101 103 104 105 107

GFSFLT1_250_spd_057.txt.gz
Wind_Speed
23 23 25 27 29 32 34 43 41 50 50 63 75 79 75 74 59 62 60 56 56 59 62 62 65 65 64 65 69 74 77 77
20 20 18 25 26 21 26 33 37 31 31 44 47 57 61 66 48 47 66 54 64 62 61 58 61 57 64 69 71 78 77 77
15 19 20 17 18 18 21 28 33 35 35 36 39 41 50 58 62 55 54 50 51 55 54 55 59 66 68 69 73 74 69 71
11 17 21 28 27 26 25 27 29 26 31 38 43 40 42 47 49 50 50 53 56 59 60 63 67 66 65 64 67 70 71 74
29 31 29 28 25 24 25 32 30 27 27 29 30 33 41 46 49 51 48 49 52 53 54 54 56 60 65 70 72 72 70 68
31 33 29 29 30 28 30 27 30 34 34 32 35 39 41 42 44 46 50 51 50 54 58 58 59 62 65 66 66 67 69 70
36 33 33 33 33 34 35 38 37 35 39 40 38 37 40 42 43 46 48 50 54 55 55 57 56 56 59 61 62 67 70 71
27 29 34 35 35 37 37 38 39 40 33 32 35 37 41 44 47 50 50 51 52 52 52 51 41 48 59 64 67 70 72 74
23 25 26 28 29 30 29 29 30 32 34 36 38 43 44 45 47 50 51 50 48 49 49 48 47 55 67 70 75 76 74 77
28 28 28 29 29 29 32 34 36 38 39 39 37 43 46 47 50 50 50 50 52 48 51 57 60 63 68 70 72 78 81 84
27 28 30 30 31 32 34 35 38 39 40 41 43 47 48 47 49 48 49 52 53 53 59 62 62 65 67 71 76 83 86 89
28 28 30 34 34 34 33 35 38 41 42 43 45 45 47 46 47 51 51 54 57 59 62 64 65 66 71 76 80 86 89 91
33 32 31 30 31 31 34 36 38 40 44 45 46 46 44 44 44 51 55 59 62 62 62 63 66 72 76 81 86 88 91 94
39 37 37 36 36 37 39 41 41 42 43 45 43 42 44 50 52 53 55 58 60 63 64 67 72 78 82 85 87 91 94 97
42 41 42 42 44 44 46 45 44 44 45 44 45 48 51 52 53 55 57 59 62 65 69 72 76 80 84 86 88 91 95 99
43 43 45 46 49 50 49 47 46 46 45 46 48 50 51 51 53 56 59 61 66 69 72 76 80 82 85 88 90 93 96 99
46 48 50 49 48 48 46 46 45 45 43 45 49 51 54 56 57 59 61 64 67 72 75 77 79 82 85 89 91 94 97 98
44 46 47 47 41 39 39 39 44 46 47 49 50 49 50 51 53 55 59 61 65 69 73 77 81 85 88 90 93 95 96 98
36 37 38 39 39 38 38 40 41 43 45 46 46 47 50 52 54 57 61 65 69 72 77 81 85 87 90 92 93 94 98 104

GFSFLT1_250_spd_063.txt.gz
Wind_Speed
28 27 26 24 27 34 41 55 62 65 70 71 73 72 74 69 65 61 61 65 67 65 67 69 66 63 63 63 62 67 68 70
28 30 25 21 28 34 39 44 52 60 69 74 68 73 70 72 68 66 66 66 66 68 69 71 73 73 70 63 65 69 71 73
32 36 31 25 28 36 41 43 45 48 52 68 70 74 74 70 69 71 73 72 73 73 75 71 66 67 62 61 57 57 66 66
12 14 23 27 26 27 31 38 44 51 57 65 65 71 73 73 70 65 61 64 67 68 64 56 59 64 62 66 71 70 70 71
13 14 14 17 16 13 23 29 35 39 45 49 54 56 56 55 52 46 48 51 52 56 58 62 68 67 63 62 63 63 65 69
19 23 20 18 22 21 23 21 24 24 24 26 31 36 41 40 42 45 50 51 46 48 49 54 56 57 58 60 62 66 66 67
30 27 26 25 26 27 26 26 30 32 31 32 35 42 40 35 37 39 41 44 46 50 52 55 58 59 59 60 62 65 69 72
36 36 34 34 31 32 35 34 33 31 31 39 38 36 37 38 40 43 45 48 49 48 50 55 58 60 62 62 65 67 71 74
22 31 26 38 42 40 41 38 37 38 39 38 37 39 41 40 43 45 46 44 48 48 50 56 59 58 59 64 67 70 73 72
28 27 28 30 34 32 30 32 35 33 35 40 41 40 40 43 42 39 38 43 50 47 45 52 57 59 63 66 67 74 72 72
28 29 34 34 31 30 32 32 34 32 27 28 29 30 29 30 29 35 33 24 37 46 45 53 58 64 70 72 74 75 74 75
25 30 30 30 27 26 26 21 18 24 25 30 28 26 25 22 25 28 31 47 50 57 59 65 71 72 72 72 72 72 74 77
32 28 25 28 29 28 23 8 13 24 25 26 21 17 39 22 33 38 43 51 60 66 69 72 74 74 75 75 75 76 74 76
30 35 33 26 26 25 21 9 26 15 11 25 30 37 41 41 46 50 56 62 65 69 74 76 78 77 72 71 71 73 75 73
28 29 32 31 26 26 28 27 31 35 34 41 45 42 50 55 59 62 66 68 72 74 76 78 72 70 70 69 67 67 69 72
26 29 27 22 24 29 32 35 36 42 52 55 57 56 57 61 65 66 65 68 70 73 71 69 67 65 65 67 69 71 72 76
22 22 27 29 21 20 27 37 44 48 53 58 60 61 63 60 66 68 64 63 65 64 64 64 64 66 68 70 72 74 76 79
21 19 16 25 27 25 26 27 30 33 38 42 44 47 50 53 54 55 56 58 60 61 61 62 65 68 71 72 74 75 77 79
27 19 16 21 28 31 32 35 39 44 46 46 46 47 48 50 52 53 55 56 59 60 62 63 66 69 72 74 75 73 71 72

GFSFLT1_250_spd_066.txt.gz
Wind_Speed
23 16 12 16 25 32 42 52 61 58 64 81 86 81 73 78 74 68 68 68 69 67 67 70 70 71 70 68 70 72 76 73
24 19 12 17 16 16 19 26 41 45 55 63 81 82 76 70 71 65 71 70 65 68 69 71 71 70 73 76 73 77 75 77
26 22 21 19 22 22 25 27 31 35 40 45 63 71 73 68 65 72 69 73 74 73 73 72 73 73 74 75 76 77 71 64
24 15 16 21 23 25 28 30 35 39 44 41 45 56 58 55 62 72 70 74 77 81 80 79 76 72 66 67 58 61 61 64
16 10 9 11 19 20 20 17 27 30 30 35 38 41 46 47 55 62 63 68 74 75 76 71 67 69 66 62 63 62 66 66
12 9 9 12 13 13 13 8 9 18 20 23 26 30 31 35 38 44 52 60 60 58 61 56 58 55 56 58 57 60 63 63
19 18 18 17 16 16 16 14 15 18 22 24 24 25 26 31 34 37 41 41 43 44 45 49 53 56 58 58 58 60 60 62
25 15 21 22 25 20 21 18 20 23 23 24 27 31 34 38 37 38 37 39 42 46 51 57 61 61 59 60 59 60 60 63
25 31 23 21 24 32 24 23 25 29 31 31 31 35 38 40 41 42 43 45 46 49 55 57 62 66 68 64 61 59 57 59
19 23 21 20 23 26 32 31 31 29 33 37 40 40 37 36 37 38 39 44 44 46 51 51 47 48 49 48 53 58 65 71
24 26 24 28 27 29 30 24 23 25 27 27 27 27 24 28 28 32 29 33 39 43 43 48 53 59 60 62 67 69 73 79
21 24 28 28 31 32 29 26 21 17 17 17 15 20 22 21 20 23 25 37 38 47 50 58 60 60 64 69 71 75 81 84
18 18 23 29 25 28 26 23 19 16 17 16 18 17 20 21 27 27 28 44 60 56 55 53 60 68 69 75 79 83 86 89
19 15 15 19 25 25 24 26 28 29 30 25 24 29 22 35 36 38 48 52 57 57 65 66 69 73 79 85 87 89 89 92
22 22 17 18 20 23 26 29 32 35 43 39 36 32 26 43 49 51 56 61 62 66 70 75 80 83 85 85 88 89 90 85
24 22 22 16 14 19 25 31 36 40 42 44 46 50 47 44 52 59 63 64 67 71 76 81 86 86 85 86 85 81 79 79
25 30 24 20 16 14 20 32 38 40 46 43 45 54 56 60 63 64 65 70 73 75 80 79 81 80 78 79 77 76 78 79
22 27 30 24 20 19 18 21 29 32 39 45 49 54 60 64 69 73 76 74 73 72 70 72 75 75 76 76 74 73 76 78
28 27 29 28 25 20 20 22 23 27 31 36 41 50 57 60 65 65 63 58 61 64 65 65 62 62 64 65 66 67 66 65

GFSFLT1_250_spd_069.txt.gz
Wind_Speed
24 20 19 43 61 64 64 67 82 83 82 82 77 73 72 70 69 71 72 69 65 64 63 68 69 60 64 60 62 63 63 66
35 27 16 22 39 54 57 68 77 83 87 82 81 82 78 76 74 72 72 68 75 73 69 61 61 64 71 72 72 68 68 70
28 19 16 16 28 41 56 60 75 82 82 82 81 81 81 77 81 78 78 77 76 73 72 74 67 68 70 70 71 71 71 76
22 21 19 16 26 27 35 51 74 76 86 80 79 75 78 77 79 80 83 77 85 79 72 70 75 75 75 75 75 76 71 62
13 16 11 14 21 27 28 33 46 61 78 75 79 77 83 74 77 83 87 75 78 81 81 78 75 72 62 59 62 63 58 56
13 15 15 12 11 16 22 24 32 34 41 47 50 54 62 57 54 56 59 58 66 66 58 49 57 54 59 54 55 54 51 52
16 17 17 15 14 15 22 23 25 27 34 31 35 37 35 36 38 40 41 44 44 42 43 41 44 49 51 52 53 53 57 61
16 18 15 20 20 19 19 22 22 20 19 18 20 23 25 27 27 31 32 32 34 38 41 43 46 48 48 50 50 53 58 61
17 21 23 24 24 27 27 21 23 24 25 28 28 28 28 29 30 32 36 39 40 41 39 40 41 39 44 56 53 51 53 53
20 14 20 22 22 22 21 24 29 25 27 26 27 30 30 32 33 31 28 29 31 34 34 35 39 43 43 46 51 54 54 58
21 16 16 16 22 24 23 26 26 29 31 30 29 25 24 25 26 27 28 31 30 30 34 42 45 51 51 56 61 67 68 67
27 22 14 14 19 23 24 26 24 25 26 25 23 23 23 20 20 24 29 22 24 24 31 38 57 54 54 61 65 65 68 70
27 28 20 16 13 21 25 26 30 29 29 28 29 28 26 24 25 24 28 29 36 36 40 44 53 59 66 74 65 70 72 77
24 28 27 22 18 14 23 27 32 34 33 33 32 32 26 24 22 27 36 38 38 38 42 51 60 64 73 75 76 79 77 81
21 24 28 28 23 18 15 27 32 34 38 40 38 35 29 30 32 44 47 48 48 49 51 54 59 67 73 77 78 79 84 88
21 24 24 27 27 23 18 16 29 34 37 42 44 43 37 40 43 46 53 52 58 56 55 59 65 71 76 81 84 85 88 87
25 26 25 24 25 27 23 20 21 23 36 38 43 46 49 50 54 55 55 59 60 63 63 70 73 77 80 83 86 88 84 84
31 31 29 26 26 23 25 23 23 26 29 34 38 43 48 54 56 60 57 63 65 68 71 72 72 79 83 87 79 76 74 72
34 36 37 33 29 28 26 25 23 26 28 30 34 38 43 50 50 52 56 58 60 62 61 60 64 64 65 63 61 63 63 65

GFSFLT1_250_spd_072.txt.gz
Wind_Speed
21 25 27 24 32 42 51 72 72 66 67 63 64 69 64 57 55 60 49 52 51 54 56 57 57 64 67 61 53 59 59 58
18 17 20 26 26 41 44 59 69 76 69 69 65 66 66 64 59 62 64 60 68 58 61 64 66 62 59 59 61 56 52 55
21 18 14 17 22 30 45 52 58 71 72 72 74 72 71 74 70 70 70 72 66 73 65 67 68 68 70 73 74 71 69 66
19 24 17 19 20 24 36 38 48 64 71 69 74 77 74 80 82 80 78 77 78 75 77 74 73 76 76 79 79 73 75 74
18 18 15 18 16 18 25 34 43 52 68 72 70 76 74 78 87 85 82 81 75 72 77 79 78 75 83 74 78 74 72 62
19 15 17 15 13 12 19 27 32 45 59 70 69 70 66 64 72 82 83 81 83 80 72 76 69 56 59 68 54 55 50 51
24 15 17 19 19 16 18 21 25 29 36 41 49 55 48 52 53 60 62 59 56 61 55 57 55 52 51 47 48 45 42 46
23 19 13 21 23 21 21 20 24 24 26 27 29 31 33 39 43 47 53 53 46 49 53 49 45 48 49 48 50 50 49 49
26 22 17 17 21 24 26 26 24 25 22 21 21 20 24 26 27 28 33 36 37 37 39 42 45 50 53 50 49 48 45 43
28 23 21 18 21 25 29 30 28 29 30 29 26 29 30 30 31 33 36 40 43 45 45 42 43 46 47 45 42 50 53 51
30 24 22 21 19 23 28 27 25 26 30 30 33 31 31 33 31 29 29 30 33 36 37 38 39 42 49 52 49 48 51 55
31 27 24 21 22 18 23 29 25 27 30 33 36 38 38 37 38 36 32 29 24 30 33 37 42 48 44 46 47 53 56 61
32 30 26 20 20 25 21 22 29 30 32 34 35 37 38 37 39 40 37 35 34 36 35 33 39 40 39 37 47 53 55 62
32 31 29 27 20 21 22 22 24 32 33 37 37 39 38 38 37 36 40 37 42 44 40 38 43 45 47 44 49 56 62 62
35 32 27 28 27 23 21 19 19 27 35 38 40 37 37 37 37 39 42 42 44 40 44 47 50 52 52 49 55 59 64 69
37 34 30 29 28 27 26 24 19 18 28 41 44 41 37 36 39 39 40 44 44 48 52 56 59 57 58 61 65 66 71 75
41 41 35 32 30 30 31 27 26 23 19 19 36 44 43 42 42 46 45 48 49 53 51 53 57 61 65 67 69 69 72 72
45 44 43 40 33 31 32 31 29 28 28 26 21 22 32 41 44 46 50 51 52 53 57 59 63 66 63 60 59 60 54 52
48 50 46 42 39 38 36 35 32 31 30 30 30 28 28 31 34 38 42 43 43 44 45 45 45 45 47 50 52 53 53 57

GFSFLT1_250_spd_075.txt.gz
Wind_Speed
31 22 21 28 33 30 35 40 62 56 55 63 58 48 52 55 46 36 53 51 49 52 45 54 51 57 56 51 55 55 53 54
34 25 16 20 30 32 32 34 42 64 62 61 63 59 53 55 55 52 40 57 57 56 57 50 59 56 54 58 56 56 58 62
38 31 19 16 23 28 28 32 29 38 66 67 69 62 57 58 58 56 58 54 48 60 59 60 59 57 56 63 57 60 59 64
37 35 26 18 15 17 19 23 26 33 40 68 76 75 66 59 62 65 64 65 64 64 60 62 64 66 71 73 70 67 65 71
37 35 29 18 14 15 19 23 26 31 37 43 56 69 71 66 59 63 68 72 65 71 70 69 72 74 76 74 73 75 74 71
34 34 31 20 15 14 11 18 24 26 30 35 40 54 59 61 67 67 66 67 75 73 77 81 81 83 72 70 64 53 58 51
28 30 31 25 16 17 13 14 14 20 27 29 36 42 41 49 53 55 59 56 60 62 62 64 66 68 70 65 50 46 47 46
24 27 28 25 20 20 21 18 15 15 18 21 22 25 30 34 34 38 37 39 36 37 38 41 40 39 43 42 46 44 44 48
25 23 26 26 21 18 22 23 21 17 20 22 21 22 25 29 30 32 34 34 35 37 36 38 38 39 40 42 45 48 46 50
30 27 24 29 25 19 18 20 24 25 25 25 26 26 27 30 32 32 32 33 37 39 42 40 39 40 45 48 47 45 48 55
26 32 25 26 26 21 19 17 18 24 26 28 34 34 31 33 34 36 38 39 42 42 41 41 41 40 40 42 45 44 45 49
28 29 31 26 25 22 21 19 18 20 26 26 30 37 41 45 40 38 39 40 41 44 46 51 52 46 40 38 38 45 49 52
31 30 31 31 27 22 19 18 19 19 25 31 32 34 37 40 41 43 40 40 37 41 44 45 43 41 40 37 41 44 46 51
36 34 33 34 33 27 19 19 20 18 20 28 35 37 36 36 37 38 37 37 38 39 41 45 44 43 41 43 44 45 50 54
41 38 35 32 34 31 25 19 19 21 18 20 24 35 39 41 40 38 39 40 38 39 43 48 48 49 48 48 48 52 57 56
46 43 38 35 38 36 32 25 25 22 22 21 22 20 26 32 36 35 37 41 44 43 46 47 51 51 51 52 56 54 43 44
52 47 42 41 43 41 41 35 32 30 27 27 23 21 19 23 32 34 33 35 42 44 46 44 46 50 49 43 46 49 51 48
52 52 49 46 45 43 44 44 39 35 35 32 31 29 25 22 19 19 23 29 29 31 34 36 39 42 42 42 43 43 46 48
56 54 55 53 48 45 45 46 43 44 41 42 37 34 34 32 29 27 26 27 28 30 32 34 38 41 42 44 48 49 51 53

GFSFLT1_250_spd_081.txt.gz
Wind_Speed
27 24 21 24 25 21 22 22 29 34 29 38 31 22 28 47 53 58 56 46 47 49 48 49 53 48 46 47 50 47 48 42
25 26 19 22 26 23 22 23 24 28 36 33 39 30 30 44 53 39 54 52 48 50 47 52 54 52 55 51 52 54 53 50
23 26 20 20 24 21 17 18 21 23 29 36 40 39 33 45 44 50 47 49 48 46 50 52 56 58 58 53 57 57 56 53
26 27 22 19 22 22 16 16 18 16 24 30 32 44 38 36 46 46 47 50 53 53 55 54 52 53 55 56 60 62 58 58
25 24 23 20 19 22 20 13 14 20 20 26 30 44 43 41 46 45 46 50 47 56 51 57 60 57 56 57 62 62 60 62
21 19 23 21 18 19 21 14 12 13 16 25 29 41 47 47 50 51 52 55 52 51 52 49 58 64 68 68 65 63 60 64
23 24 21 21 21 18 19 19 13 10 11 18 22 32 41 50 50 51 54 58 58 59 57 58 59 61 64 67 65 66 68 68
24 20 20 22 21 21 19 17 17 14 14 14 19 25 33 39 49 53 56 56 59 61 60 58 61 67 68 69 71 68 67 69
24 21 21 25 24 21 20 18 17 19 16 17 16 18 25 33 38 44 52 59 60 59 61 59 59 61 67 66 64 66 67 66
28 25 22 27 27 23 21 19 18 16 18 16 19 22 22 23 30 35 39 41 44 45 49 57 58 59 59 59 59 60 63 64
32 33 26 25 26 26 24 22 20 18 17 17 18 19 25 26 28 28 26 29 33 38 41 43 46 48 49 53 55 56 58 59
36 36 33 30 31 28 28 25 22 20 21 19 20 18 17 26 29 31 30 29 28 30 33 35 38 42 45 46 48 48 50 51
39 39 38 38 38 32 29 29 26 24 20 21 19 19 18 16 20 29 36 39 38 38 39 43 45 46 45 47 46 50 50 50
39 38 42 44 42 38 29 32 31 26 23 22 24 20 18 20 18 17 28 32 44 44 42 42 45 45 45 48 50 50 50 48
42 42 47 45 45 41 36 33 30 31 32 28 25 26 24 23 21 20 19 21 33 41 48 49 48 48 48 47 48 49 46 49
47 50 51 50 50 47 43 44 36 36 36 37 34 27 28 29 28 25 23 22 22 23 36 46 51 53 53 52 50 50 51 54
55 55 54 50 46 48 49 44 42 40 39 42 38 37 35 32 33 32 29 30 29 28 30 30 35 48 50 50 51 51 50 51
59 59 58 56 55 56 54 53 52 41 44 45 41 42 43 39 38 39 34 35 35 32 34 33 34 34 39 44 42 42 38 41
64 61 55 55 55 57 61 59 57 51 47 49 49 45 46 45 42 43 41 39 41 40 40 40 40 39 44 44 41 39 41 46

GFSFLT1_250_spd_084.txt.gz
Wind_Speed
36 34 30 32 29 24 24 21 21 33 43 39 44 38 36 23 38 47 54 59 57 39 44 47 47 42 42 38 36 45 37 34
30 25 28 30 29 25 26 23 22 27 39 45 44 41 38 29 35 39 43 56 55 48 47 49 49 52 50 45 46 45 50 49
25 25 27 28 29 23 24 23 18 20 29 43 42 44 41 30 38 41 43 58 52 55 46 46 44 50 51 50 52 54 48 51
23 22 25 25 28 24 23 22 15 16 20 38 43 43 44 32 39 43 43 47 60 51 56 52 49 50 52 52 48 52 51 54
23 24 21 26 25 25 22 20 17 12 12 24 38 38 49 43 40 47 47 45 51 59 60 56 59 52 48 51 53 53 58 57
24 23 24 23 23 26 22 20 17 15 12 13 26 35 40 52 46 47 54 51 51 48 55 58 55 52 50 53 52 53 57 58
27 24 23 23 21 26 27 21 16 15 13 14 20 28 38 48 49 49 52 52 52 53 52 52 51 52 55 57 54 56 60 63
28 27 24 24 22 25 28 25 20 15 13 13 14 24 32 41 54 56 59 56 55 52 55 54 56 56 54 56 58 58 59 61
29 30 25 27 26 25 23 25 23 21 14 12 11 14 22 35 47 57 65 62 58 58 57 58 61 61 64 61 61 64 66 67
33 33 29 28 29 25 23 24 26 24 23 14 12 13 14 19 34 51 60 65 65 62 63 64 67 66 69 69 68 70 72 74
40 38 36 30 31 29 30 27 27 24 23 23 18 12 12 13 23 26 42 53 59 61 63 68 69 70 72 73 72 72 73 74
41 41 38 31 32 27 29 31 32 26 26 25 25 19 14 11 11 23 29 33 37 43 47 50 55 61 66 66 64 66 67 66
47 44 41 35 36 32 31 33 32 30 32 28 24 24 21 16 16 14 14 30 36 35 35 37 41 42 42 44 46 48 51 54
46 45 43 43 41 35 33 35 35 34 31 31 24 27 29 26 22 20 18 15 13 33 43 47 44 43 42 45 48 49 52 55
50 48 47 44 41 40 35 39 37 39 38 38 30 32 31 31 29 28 25 24 24 20 18 24 39 50 50 51 52 53 56 57
51 52 47 44 46 42 39 39 40 36 42 41 41 36 33 34 36 30 28 29 29 29 26 25 24 22 27 37 47 54 58 58
52 49 50 46 42 42 47 49 47 50 48 49 46 41 35 39 41 36 35 35 36 33 35 33 32 33 33 32 32 30 29 42
58 55 50 48 45 44 52 54 55 53 50 46 45 49 46 45 45 41 40 42 41 37 37 37 39 38 40 40 41 39 35 36
58 54 56 55 54 51 57 59 60 57 53 51 53 55 56 53 49 54 47 45 44 45 45 42 46 49 48 46 45 43 41 45

GFSFLT1_250_spd_087.txt.gz
Wind_Speed
32 31 25 28 33 36 35 31 32 30 31 30 47 47 41 51 62 66 68 69 67 63 54 56 54 44 42 36 40 34 36 33
30 26 24 26 30 30 33 30 29 30 27 30 37 49 50 53 44 41 54 57 53 64 60 62 51 42 45 41 45 39 41 40
28 26 23 21 24 29 29 27 27 28 26 28 34 45 49 53 51 45 35 48 46 52 55 56 55 48 52 45 48 43 44 42
28 26 25 21 20 24 27 26 25 27 24 24 33 37 51 50 53 46 39 36 46 46 48 55 55 40 48 48 51 51 50 47
29 26 26 23 23 22 23 25 23 24 23 17 24 36 44 47 51 47 38 35 39 40 49 54 55 52 44 47 45 48 49 49
30 22 24 23 19 18 19 24 23 22 22 21 16 25 36 44 44 50 38 41 47 42 47 50 55 48 54 54 50 52 49 52
28 23 23 22 21 23 20 23 25 21 19 20 18 16 29 42 41 49 41 43 46 48 45 51 53 55 57 57 54 58 59 57
30 29 22 24 22 23 21 21 22 23 20 18 18 17 17 27 41 46 45 45 49 49 49 52 54 55 61 61 59 58 58 58
32 34 26 25 24 25 25 23 24 20 23 21 16 15 16 19 31 40 47 52 53 54 56 54 57 56 53 54 57 61 60 60
35 38 32 29 27 28 29 27 26 23 24 22 20 17 15 15 18 33 41 52 58 60 57 61 63 61 61 62 63 62 62 64
40 38 34 31 34 33 31 29 28 28 25 23 21 22 18 16 15 17 29 40 50 60 63 64 64 65 65 64 65 65 66 69
38 40 40 39 38 34 31 29 33 29 27 25 23 23 23 16 18 16 13 23 34 49 63 67 71 70 69 68 68 69 71 72
38 40 40 38 36 37 35 37 37 35 30 28 27 25 20 17 22 22 22 19 15 28 40 55 67 69 75 73 72 72 78 78
43 45 44 40 39 39 39 39 38 40 35 32 27 30 28 28 23 27 24 23 23 21 19 27 42 46 50 56 59 59 62 63
43 40 38 40 40 41 42 42 41 39 40 32 31 30 33 36 33 29 26 27 29 29 29 29 27 26 33 44 49 53 52 51
44 42 43 44 43 43 45 43 45 44 42 41 37 36 39 40 40 37 26 31 35 37 36 34 35 34 33 29 29 30 33 42
47 49 48 49 48 47 45 46 46 44 43 42 44 46 46 46 45 44 40 42 42 43 43 46 42 41 41 41 38 36 36 37
47 48 53 54 52 49 50 52 51 50 49 47 46 49 49 50 52 49 45 49 51 49 46 50 52 50 46 44 47 49 48 47
49 51 56 59 56 55 54 57 56 54 51 53 51 52 51 57 55 53 55 62 60 60 59 54 56 57 56 54 51 49 51 51

GFSFLT1_250_spd_090.txt.gz
Wind_Speed
30 28 28 31 28 30 30 33 35 32 32 28 24 24 36 51 63 64 60 58 64 68 63 54 55 50 41 41 40 39 33 34
30 27 26 28 25 27 25 29 32 32 31 30 24 24 31 48 51 66 68 66 60 62 66 64 51 51 55 47 44 42 42 39
32 27 27 28 27 23 24 27 32 32 28 28 27 21 25 42 52 53 63 65 64 61 64 68 67 57 52 50 47 43 47 45
35 25 27 26 26 24 23 24 26 30 31 27 27 25 19 29 48 55 52 51 57 56 61 65 65 63 59 54 52 46 53 49
37 27 26 28 27 24 20 19 25 28 31 27 25 27 23 20 34 53 52 48 45 44 46 58 60 59 58 58 54 55 54 53
38 32 26 30 28 21 21 21 23 23 27 27 25 24 24 25 21 36 53 48 51 49 45 40 50 52 54 54 55 53 50 51
39 32 29 31 27 21 20 22 22 25 22 24 24 21 22 23 25 27 36 48 48 46 48 42 43 46 48 56 58 58 53 52
40 36 32 33 28 23 21 21 22 25 21 22 24 21 19 20 21 25 28 37 42 50 47 44 43 46 48 53 60 62 57 55
41 37 35 36 32 29 24 22 23 26 25 25 25 24 21 19 17 19 28 30 38 43 46 46 44 48 52 53 56 63 61 62
42 38 37 37 34 32 29 24 24 26 26 28 27 26 26 23 20 17 19 24 30 35 39 47 46 51 50 53 58 61 64 65
41 42 39 34 36 31 33 29 28 29 23 28 28 28 24 26 23 19 16 16 21 34 41 35 50 53 54 58 58 61 63 66
38 44 41 40 37 32 31 34 31 31 28 30 30 30 30 23 21 19 21 20 18 17 30 40 41 44 59 62 61 66 67 67
38 40 41 36 36 35 35 36 34 30 32 31 33 33 32 28 25 26 21 22 22 22 20 20 31 40 45 51 64 69 70 71
42 42 40 38 34 36 37 39 34 32 33 33 35 36 35 32 30 32 30 25 24 18 20 24 27 27 29 36 46 55 63 64
41 38 35 35 39 37 37 37 37 37 37 35 37 38 37 34 32 32 30 32 30 28 25 25 28 29 34 37 36 35 40 48
41 39 40 41 40 39 36 38 37 38 38 38 39 40 39 40 39 39 40 38 36 35 39 36 34 41 39 37 39 43 42 41
44 44 42 42 42 41 42 41 41 42 42 42 41 41 42 42 41 43 44 44 43 42 47 47 45 48 48 48 49 42 47 51
45 48 45 46 43 43 45 45 45 46 47 47 44 45 42 42 46 47 47 47 48 51 50 51 49 54 53 53 52 54 49 50
54 53 51 52 50 49 48 47 48 52 53 53 52 50 49 49 46 46 48 50 50 50 48 51 56 61 58 57 58 55 54 51

GFSFLT1_250_spd_093.txt.gz
Wind_Speed
40 46 44 34 30 26 28 27 27 28 31 33 29 21 18 25 35 50 52 54 55 60 61 62 61 59 48 36 28 28 29 34
38 43 42 34 29 26 27 26 26 26 29 34 34 25 20 20 28 55 54 54 60 62 64 65 67 60 59 58 43 39 38 40
41 44 39 35 29 25 27 25 24 24 27 32 31 29 25 13 23 39 64 59 57 62 63 63 61 58 59 57 56 55 49 44
41 41 35 37 29 28 28 22 23 21 25 28 30 30 28 19 12 24 49 67 67 63 62 62 63 62 64 61 58 53 51 53
37 39 36 35 30 31 27 23 25 19 22 26 26 28 27 24 14 12 26 50 68 71 62 65 62 62 57 60 62 61 51 49
37 41 36 36 33 31 26 24 24 18 19 24 25 28 29 23 23 17 11 26 43 57 60 53 56 52 57 56 57 58 62 58
41 41 37 37 35 31 28 25 25 17 18 21 23 26 28 28 23 20 19 14 21 35 49 48 47 48 47 44 43 52 54 60
42 39 42 38 36 32 29 26 27 19 16 19 22 24 26 26 27 23 18 19 16 18 34 43 43 47 48 44 46 48 51 51
39 42 38 40 37 33 30 29 27 24 18 18 20 23 24 24 26 25 22 20 19 15 27 41 40 42 46 47 50 45 49 53
38 41 39 41 39 35 34 33 29 28 20 19 21 21 21 23 24 24 21 19 17 13 16 24 36 37 47 50 47 45 47 51
41 40 41 42 40 38 38 36 29 31 28 23 23 23 21 22 23 21 18 20 19 18 14 13 27 29 35 44 46 44 51 51
41 44 45 43 41 40 36 38 31 27 31 29 26 25 21 23 23 22 19 16 17 17 15 15 14 18 33 38 42 48 49 53
38 45 49 46 45 40 38 37 33 30 33 34 28 27 24 24 25 25 24 22 21 15 13 10 10 13 15 17 26 42 48 53
42 42 46 44 40 38 38 39 37 35 35 37 32 29 29 27 26 27 29 27 25 21 17 14 17 13 11 9 12 16 20 26
43 41 41 40 38 36 38 40 37 36 39 41 40 34 31 31 31 30 32 33 32 28 29 26 22 29 28 25 23 24 25 27
44 38 40 41 39 41 40 39 40 42 41 41 40 38 35 33 33 34 35 36 34 34 36 35 32 31 35 36 35 36 32 35
47 50 49 45 41 42 43 39 42 45 45 41 39 38 39 39 39 37 39 41 42 41 40 41 38 38 40 40 40 43 41 46
45 50 54 51 51 47 44 44 46 45 45 43 44 44 45 46 46 45 46 45 43 41 41 40 43 45 43 43 39 43 45 47
56 52 52 53 48 46 45 45 47 48 47 45 47 47 49 48 51 52 53 52 50 53 52 55 53 53 52 45 46 45 46 51

GFSFLT1_250_spd_099.txt.gz
Wind_Speed
61 62 62 62 61 55 50 50 46 33 28 28 24 24 24 21 27 24 26 36 41 34 34 44 39 44 49 45 45 47 43 41
63 64 62 61 62 54 51 48 41 33 28 28 23 24 23 19 25 22 23 33 47 39 38 42 42 43 46 47 51 47 48 44
69 71 63 58 59 56 53 46 40 34 30 28 22 23 21 17 23 18 19 29 49 45 45 44 50 49 48 50 50 52 48 47
75 71 58 54 58 57 51 49 41 36 32 28 21 20 19 16 16 17 14 23 50 52 47 50 52 57 55 55 57 54 53 53
70 63 49 55 59 56 48 46 40 35 34 29 24 20 17 14 13 14 10 13 37 55 52 51 54 58 58 64 62 63 60 54
62 56 55 58 58 50 44 39 40 36 36 30 24 22 16 12 12 10 11 6 15 53 59 56 59 53 64 70 67 60 60 60
54 55 59 61 56 47 37 42 41 39 38 31 26 23 16 12 11 9 9 8 4 18 60 63 64 67 66 67 67 68 64 63
54 58 63 58 51 42 45 46 44 42 41 34 29 26 18 12 10 11 9 10 8 5 24 51 68 70 70 67 65 64 66 68
58 60 54 51 43 40 50 46 44 43 42 36 32 28 22 15 11 12 11 11 11 9 6 19 37 68 73 70 68 70 67 63
58 54 47 43 38 46 52 48 43 44 43 37 34 29 26 20 14 12 14 11 12 12 11 8 11 26 46 65 70 70 69 64
55 47 42 41 42 44 49 48 42 43 42 38 35 31 29 26 20 17 16 14 13 12 15 13 12 10 20 27 39 51 45 45
47 40 40 42 42 44 49 46 43 42 41 39 37 34 31 30 28 25 23 19 16 15 14 17 16 13 10 20 27 33 37 38
38 38 44 44 44 42 46 47 45 43 40 42 42 38 32 28 29 32 28 26 20 20 20 16 15 15 15 15 14 16 20 26
29 41 45 46 48 46 48 49 45 45 41 44 44 41 35 31 31 33 33 32 27 24 23 23 21 18 16 13 16 19 19 19
35 41 46 49 51 49 47 45 48 45 44 43 43 40 37 37 37 36 33 31 32 31 29 28 27 26 22 23 23 23 25 25
44 37 43 46 46 48 46 45 49 46 47 45 44 44 42 41 40 40 41 38 36 37 35 35 32 32 29 29 29 30 30 33
43 45 39 43 45 46 48 48 52 48 46 44 44 47 49 51 50 47 46 46 44 41 41 40 40 37 36 36 35 36 36 38
47 46 47 42 44 44 47 50 52 51 50 51 50 54 55 57 52 46 45 44 43 45 45 45 44 44 44 42 42 42 42 43
52 51 50 47 43 48 49 53 54 57 57 58 60 60 61 58 52 50 49 49 49 49 50 51 51 48 51 50 49 48 48 49

GFSFLT1_250_spd_102.txt.gz
Wind_Speed
61 61 58 59 59 61 59 58 58 58 53 50 45 39 35 32 25 24 28 28 29 31 36 29 32 31 34 52 50 44 45 47
65 59 61 60 61 63 65 66 62 58 52 47 43 39 35 32 24 23 26 27 26 32 40 31 32 33 35 45 49 43 43 41
66 66 66 65 61 63 67 67 63 54 49 47 42 42 36 31 24 21 23 24 24 32 45 37 38 35 38 42 48 47 48 44
62 65 66 68 68 70 71 66 58 52 48 44 40 42 37 28 23 22 21 22 24 31 46 44 41 39 41 46 49 50 43 48
72 73 74 72 73 74 68 64 54 52 49 46 42 42 36 25 22 20 18 18 21 25 47 49 43 45 44 48 53 50 50 54
75 77 78 78 79 71 67 65 57 53 53 43 41 43 35 26 21 19 16 14 15 16 42 51 48 51 50 54 54 57 54 53
79 80 77 78 72 70 70 66 56 54 49 40 45 43 34 28 22 17 16 16 11 13 17 50 54 50 57 58 60 60 59 60
83 84 82 76 70 70 69 64 58 52 46 44 48 44 34 31 23 16 14 14 11 6 10 25 60 55 57 65 64 67 69 69
84 78 73 71 71 69 66 63 56 50 41 51 49 45 36 32 26 20 16 13 12 8 5 9 24 48 66 66 68 71 74 72
90 81 67 70 72 66 62 58 50 46 45 51 51 45 37 35 30 25 20 17 15 13 10 7 10 23 40 57 72 69 67 71
67 66 71 72 66 59 54 47 47 43 53 51 51 46 41 37 34 30 23 20 19 17 14 11 12 12 15 28 46 69 65 78
65 66 65 58 51 50 44 41 43 49 54 51 51 47 43 40 38 35 31 25 23 22 19 17 18 16 14 14 21 30 39 51
57 54 54 46 45 41 37 42 47 52 53 50 50 47 46 42 40 39 37 33 30 26 23 22 21 20 19 16 16 19 31 35
48 47 46 41 38 34 39 45 49 53 50 48 50 48 47 43 41 39 34 31 32 31 29 24 25 25 22 20 20 18 20 24
39 40 37 33 35 36 41 45 49 52 47 45 49 49 47 44 43 42 38 35 34 32 30 33 30 31 29 28 26 28 25 24
31 25 28 34 37 38 41 44 46 52 46 50 51 48 46 45 45 45 41 39 39 40 37 37 35 38 34 34 34 32 34 34
16 24 33 31 39 42 43 41 42 47 48 46 52 51 49 48 48 49 48 47 46 44 43 44 45 41 42 40 40 41 40 39
41 27 35 33 38 45 48 46 46 45 48 49 52 50 52 50 52 53 52 52 52 52 49 48 47 46 48 46 45 45 46 46
33 24 32 41 37 39 40 44 48 47 50 50 52 50 49 47 49 53 60 61 57 56 53 51 50 54 53 51 49 50 52 52

GFSFLT1_250_spd_105.txt.gz
Wind_Speed
65 61 60 62 65 65 61 61 61 58 59 61 58 63 60 52 45 40 36 33 34 34 37 38 31 29 26 29 38 52 51 55
68 66 65 66 69 65 64 62 60 60 61 62 63 66 61 48 43 38 37 33 33 33 36 32 27 29 28 32 31 48 51 54
72 74 74 73 65 63 64 64 63 62 61 64 65 66 62 47 42 37 37 32 31 32 34 29 27 33 31 27 28 41 51 52
72 75 74 67 63 60 58 61 63 63 66 69 69 70 62 48 40 36 35 31 27 31 33 26 29 34 33 27 28 32 47 51
71 70 70 68 66 67 67 67 72 72 71 72 74 67 64 48 44 37 33 29 24 29 28 27 27 40 36 30 29 37 49 51
74 72 71 71 70 70 72 73 75 74 76 75 75 70 62 51 43 37 32 26 22 25 24 24 26 42 38 36 35 40 42 51
77 74 74 74 75 76 77 79 80 77 75 77 72 71 58 51 40 37 32 24 23 23 23 23 25 45 42 43 42 44 48 52
75 76 77 78 80 80 79 79 82 80 80 73 71 64 55 49 38 38 34 24 22 20 18 20 18 49 49 47 49 44 50 53
81 81 82 84 86 82 80 83 85 86 79 75 72 59 50 46 41 41 35 26 21 19 17 17 18 31 56 50 51 55 53 56
86 85 85 86 86 84 84 84 83 83 72 76 64 56 46 43 46 44 36 31 24 18 16 16 17 15 43 60 56 55 59 61
88 86 86 87 86 86 81 79 77 72 73 64 59 49 46 45 50 46 40 35 28 24 18 13 10 12 16 28 57 64 60 60
90 91 91 90 85 83 81 78 72 68 64 56 51 44 47 50 51 48 42 38 33 27 21 17 14 13 14 15 19 30 51 68
85 81 75 72 72 67 69 71 65 57 48 47 46 43 49 54 51 48 45 41 36 31 26 22 22 22 20 20 19 20 23 30
55 57 59 62 64 66 62 55 46 42 44 43 40 48 50 49 52 50 47 44 42 38 36 30 29 27 26 26 26 25 24 22
55 58 61 56 53 48 45 41 38 41 38 36 44 47 45 52 54 52 49 46 44 42 37 34 31 33 32 31 30 30 29 30
51 50 42 38 35 37 38 34 37 37 38 42 46 43 48 55 55 51 49 48 45 43 41 37 36 35 34 35 35 37 35 33
39 34 25 26 28 32 29 28 35 39 43 48 47 44 47 53 53 51 50 49 47 43 43 41 38 39 43 44 44 44 42 41
24 18 14 27 20 27 25 31 38 42 47 49 49 45 50 53 54 51 50 49 47 49 50 49 49 49 48 48 47 48 50 50
26 30 33 42 26 26 29 33 39 42 45 49 48 44 47 51 55 54 53 51 47 43 53 50 53 55 54 53 51 52 55 56

GFSFLT1_250_spd_108.txt.gz
Wind_Speed
51 56 60 59 60 62 59 52 58 57 57 59 61 61 62 59 56 59 61 58 46 38 33 35 37 40 35 31 30 31 37 44
55 56 57 59 53 61 60 52 58 60 61 63 61 59 59 53 57 62 63 59 49 42 34 35 38 38 31 29 31 30 37 44
58 57 58 59 58 59 60 58 60 67 67 64 55 53 56 60 63 63 62 61 47 42 34 36 39 37 29 30 30 27 34 47
60 60 61 60 62 65 65 66 65 64 67 65 60 59 66 63 64 65 63 57 44 42 35 35 38 35 31 30 28 30 34 41
63 60 61 64 65 65 65 66 66 61 65 65 65 63 63 65 66 65 60 55 43 42 34 36 38 33 28 32 30 29 25 31
71 65 61 62 65 66 66 60 59 60 64 69 66 64 67 70 66 67 59 57 42 41 33 35 34 31 23 35 33 32 24 25
71 71 70 69 69 69 71 72 69 69 64 72 70 70 70 68 68 69 61 56 41 37 33 33 32 29 23 38 40 34 31 31
77 77 76 72 72 73 73 73 72 71 70 75 74 73 74 70 67 67 61 50 39 35 33 29 29 25 23 36 43 37 36 37
81 79 75 72 72 73 74 75 73 70 75 75 80 74 75 70 66 61 59 43 36 35 34 27 26 26 22 24 43 42 38 40
81 82 78 75 76 76 77 76 77 75 78 78 80 74 73 66 61 56 49 41 36 37 34 25 23 21 19 16 47 49 44 43
81 81 81 80 81 83 84 84 84 83 82 84 82 79 73 67 58 56 43 41 40 41 35 25 20 15 13 16 16 49 51 51
82 80 80 82 82 82 83 84 85 82 81 84 81 75 68 58 57 50 38 41 45 44 38 30 24 19 15 14 12 13 29 54
78 77 78 79 80 80 81 77 77 82 86 83 74 60 58 55 52 40 41 43 49 46 41 34 29 24 21 19 18 17 17 19
72 73 75 76 78 78 80 80 79 81 77 69 64 59 56 50 41 39 43 49 51 48 43 37 34 29 26 26 27 25 23 21
73 75 76 76 77 78 79 76 71 66 62 58 52 44 42 39 41 40 43 51 52 50 44 42 41 37 33 34 34 32 28 27
66 67 65 61 63 65 63 59 55 54 48 40 39 40 41 41 39 40 45 53 52 50 47 46 44 43 42 41 38 35 32 31
43 47 49 52 53 46 45 40 38 36 36 38 38 38 40 38 43 43 48 52 53 51 49 46 45 47 45 45 42 39 37 36
45 48 42 37 31 30 32 31 33 31 33 35 36 36 39 45 41 43 49 51 51 52 52 50 50 50 48 47 45 42 42 42
39 34 31 30 26 21 20 17 18 24 27 33 34 38 45 43 44 46 49 51 50 52 53 52 51 52 52 51 51 50 50 51

GFSFLT1_250_spd_111.txt.gz
Wind_Speed
57 49 50 50 50 49 48 49 50 51 54 50 50 48 52 54 55 57 58 53 57 54 54 51 40 35 36 35 35 33 33 30
60 54 55 53 50 46 46 48 51 46 56 50 49 50 51 55 54 61 55 55 56 55 57 54 40 36 34 36 34 33 33 30
60 61 56 56 52 47 42 47 51 51 53 54 50 50 51 57 56 59 55 59 57 58 60 55 45 36 34 36 34 31 32 30
65 63 54 53 53 50 47 48 50 51 51 55 52 54 56 57 57 56 53 60 58 62 62 56 42 36 34 36 35 32 31 34
62 57 57 55 57 54 50 46 48 51 53 60 57 54 56 56 54 53 57 57 59 61 66 57 41 36 33 35 36 34 31 33
58 60 63 58 57 57 54 48 49 52 57 62 64 58 54 53 58 59 57 60 61 61 62 50 40 34 32 34 34 32 33 36
65 64 63 65 65 65 61 58 52 53 56 58 62 57 57 58 62 63 61 62 63 60 58 47 40 32 31 35 29 30 35 32
71 68 67 65 66 66 67 65 62 57 58 59 66 60 59 63 63 63 61 65 61 58 54 45 38 30 31 33 28 28 38 35
75 72 70 70 67 69 71 71 69 67 61 58 65 64 65 64 63 63 65 68 67 62 51 41 36 31 31 28 29 25 39 40
79 77 72 73 72 71 70 73 70 69 63 59 65 68 65 64 69 71 72 68 64 57 48 39 34 33 32 28 27 24 37 41
78 76 73 72 74 73 71 69 70 70 67 64 69 76 73 71 72 71 69 63 59 49 45 38 35 34 31 26 25 22 22 43
70 70 72 72 73 71 69 69 68 68 68 69 72 74 67 63 62 64 61 57 52 43 42 39 38 36 32 25 22 17 16 29
67 63 68 68 71 69 70 72 72 70 67 65 66 64 61 58 59 63 65 59 51 47 43 41 42 40 33 27 24 21 17 16
63 70 70 67 66 68 70 71 71 69 69 67 63 62 63 58 61 63 60 55 54 51 44 42 47 45 40 33 31 28 25 21
56 61 65 64 63 64 65 66 67 67 66 66 67 66 62 55 59 69 67 60 53 54 45 44 51 49 45 38 36 34 30 27
56 56 54 53 55 57 59 60 64 69 70 69 69 68 64 60 63 67 60 59 52 52 47 45 53 51 50 44 40 38 34 32
44 46 47 48 49 54 58 61 64 62 64 63 60 59 59 50 43 43 48 49 50 50 46 46 54 54 52 49 45 43 42 40
45 47 47 44 43 47 51 53 55 54 53 52 48 46 45 36 46 44 44 47 50 52 47 49 56 55 53 52 50 48 47 46
44 38 36 37 42 44 46 47 37 30 36 34 37 39 41 37 40 42 50 48 52 53 50 51 56 55 55 54 52 51 51 50

GFSFLT1_250_spd_117.txt.gz
Wind_Speed
71 75 77 77 72 67 63 57 52 48 45 41 40 43 45 46 43 42 41 36 37 38 38 40 40 42 41 41 44 45 47 46
71 79 84 86 77 66 65 57 53 46 44 41 40 41 41 41 43 44 44 37 38 37 38 39 41 43 41 43 45 45 48 47
73 84 89 87 73 65 64 57 52 48 47 45 40 41 42 42 41 42 44 43 40 37 38 40 41 43 41 42 44 47 49 48
76 83 84 82 72 66 64 59 53 55 52 48 42 44 43 38 40 41 45 40 35 38 39 41 42 41 41 44 48 49 51 49
72 76 81 82 76 70 63 59 58 58 54 50 47 45 43 43 38 37 41 45 44 39 40 45 43 43 44 46 48 51 54 47
69 75 79 82 77 69 64 63 63 60 56 50 48 42 44 45 35 35 39 41 41 37 44 48 49 48 44 44 47 55 51 44
65 73 78 77 73 69 68 69 66 61 57 52 49 47 45 41 41 49 53 48 42 40 47 48 48 44 42 46 50 53 47 42
66 73 76 75 72 72 72 70 68 64 58 54 52 52 48 44 43 35 52 54 43 41 45 45 47 44 46 49 53 50 41 42
65 71 74 74 72 74 74 71 69 65 62 57 56 56 53 51 52 48 53 55 55 51 45 46 49 50 50 51 51 46 43 43
66 70 75 78 77 77 75 73 69 67 66 62 61 60 58 60 60 61 61 60 60 59 52 48 48 50 53 51 47 45 42 42
69 70 73 75 76 77 74 71 69 68 66 65 65 63 64 65 65 64 63 62 62 62 55 54 55 52 53 51 46 41 39 38
68 71 73 74 75 75 75 73 71 69 66 67 67 66 65 66 69 66 62 61 61 56 54 52 54 54 54 54 51 43 37 37
59 63 69 70 71 71 72 71 70 69 68 67 70 69 67 67 72 66 62 60 59 58 54 51 55 54 58 55 47 42 37 37
47 57 61 62 67 70 71 71 70 70 69 69 69 69 68 70 71 70 67 65 59 59 55 54 55 58 56 53 50 46 43 43
49 52 51 56 63 67 70 70 70 71 72 72 71 70 70 72 74 73 70 62 61 59 57 56 55 55 56 55 52 51 49 48
29 32 45 52 55 58 65 67 68 70 69 69 70 70 72 72 72 70 64 56 62 57 54 59 59 59 59 58 57 55 53 53
32 33 37 39 48 55 59 62 61 61 64 69 71 72 72 71 71 71 70 67 64 61 58 53 64 65 67 66 64 62 59 57
39 34 35 33 37 42 47 51 55 60 65 66 64 65 64 66 67 65 65 67 63 61 61 59 69 68 70 71 69 67 68 68
47 45 42 42 45 42 45 47 51 52 52 54 56 58 58 59 62 61 59 59 58 55 43 64 67 72 73 76 78 75 75 75

GFSFLT1_250_spd_120.txt.gz
Wind_Speed
93 89 81 71 67 64 67 74 77 68 61 62 55 48 45 47 47 47 47 47 42 42 39 32 34 31 32 35 36 35 33 33
99 88 80 75 73 62 66 76 78 68 62 62 56 52 47 42 44 43 44 48 46 43 42 36 35 35 34 33 36 37 35 36
105 97 89 83 72 54 68 81 80 69 65 64 58 53 47 43 44 43 41 44 43 41 41 39 39 36 33 34 36 37 35 38
107 100 92 79 67 59 69 79 77 70 67 67 60 53 49 46 44 44 39 41 42 43 41 36 32 34 32 33 37 37 38 40
102 96 89 62 59 65 71 76 77 73 71 68 62 57 51 47 45 41 37 36 38 39 37 34 34 37 33 31 37 41 40 39
86 81 73 62 64 66 72 76 78 78 73 69 66 59 55 49 46 43 40 36 35 32 31 32 32 36 35 34 39 37 38 40
65 64 61 60 64 70 73 78 79 80 76 73 69 63 57 50 49 46 43 43 41 38 39 38 44 49 38 39 39 39 38 43
54 54 55 59 66 67 71 75 79 80 78 75 70 65 58 52 51 48 45 43 46 36 41 48 55 45 39 42 43 45 44 46
49 51 58 61 63 67 68 75 79 80 79 76 72 68 61 56 54 53 52 44 42 26 35 39 42 45 46 47 46 46 45 46
46 51 57 58 60 65 69 70 79 80 79 78 73 69 64 59 58 56 56 48 50 49 45 46 50 50 53 55 51 48 47 50
44 50 54 56 59 63 67 70 76 79 80 81 76 71 67 64 62 61 60 54 52 56 54 56 59 58 55 56 54 51 49 52
42 48 52 54 57 60 66 72 74 76 78 78 75 73 70 67 66 65 63 59 58 58 61 60 60 61 58 55 55 54 52 53
37 44 49 53 56 59 67 72 72 72 73 74 73 72 71 69 68 69 70 67 63 63 59 58 60 61 58 57 58 60 58 55
24 45 40 55 57 58 64 69 72 72 72 72 71 71 71 70 68 68 69 69 68 67 66 65 64 63 61 63 62 60 59 58
29 34 42 45 53 55 59 67 71 74 75 75 74 74 73 72 69 67 70 70 69 70 70 68 66 67 66 65 63 63 63 61
29 30 38 43 51 56 59 61 66 72 75 76 76 76 75 74 72 70 70 70 69 70 70 70 68 69 69 66 66 66 66 66
37 35 38 40 40 45 55 60 62 67 74 73 75 78 78 77 76 75 76 75 73 70 68 64 67 67 67 66 66 69 71 66
38 33 26 27 33 40 44 49 54 60 66 69 71 74 75 77 78 79 78 78 77 78 75 73 72 65 60 64 64 58 56 59
38 37 35 35 33 35 39 43 46 52 56 60 62 67 72 75 77 78 80 80 79 78 77 75 72 66 66 69 64 67 68 63

GFSFLT1_250_spd_126.txt.gz
Wind_Speed
92 94 91 90 84 86 87 88 83 82 80 73 69 65 60 54 56 55 57 57 51 48 47 44 42 40 39 34 37 34 32 36
98 100 102 96 99 93 91 91 88 88 84 78 70 68 69 57 56 58 58 60 54 51 47 43 41 42 42 44 40 41 39 33
107 109 106 106 106 104 101 99 96 93 90 78 76 75 72 67 59 60 61 63 58 50 46 44 42 41 42 46 41 43 43 40
110 109 110 112 114 112 109 105 100 95 91 80 74 76 73 67 64 62 62 64 60 53 46 42 42 41 41 42 39 39 37 39
94 104 110 113 115 114 112 108 103 101 96 87 80 76 75 73 70 64 61 66 64 56 51 46 44 43 41 38 34 35 39 38
83 86 94 105 115 116 114 109 107 102 97 86 65 66 74 70 71 69 62 69 66 59 52 49 47 42 36 33 36 38 38 37
66 73 82 93 103 110 114 105 106 103 94 85 65 81 79 73 76 74 65 64 66 62 54 53 48 42 35 34 37 37 36 34
52 56 63 74 87 102 106 101 101 100 97 91 88 86 90 92 85 74 64 65 63 63 59 52 48 46 41 42 46 46 49 49
45 45 49 56 66 79 92 99 102 100 96 100 97 93 98 100 88 68 63 63 63 66 59 54 52 49 45 46 48 52 52 50
33 35 38 43 50 60 71 79 92 100 98 100 103 101 95 90 81 65 60 64 64 65 62 56 55 55 51 46 49 50 54 56
20 22 29 32 39 47 56 64 78 91 92 98 94 89 87 83 63 66 62 65 62 62 65 60 58 59 56 51 55 51 51 56
17 14 17 23 28 37 47 53 61 78 92 83 82 81 86 75 67 62 58 59 61 67 65 63 61 63 58 57 57 54 55 50
18 11 11 16 20 30 37 43 51 60 72 78 76 66 67 62 57 58 63 61 68 70 70 70 66 64 64 63 62 60 57 56
25 23 18 13 7 17 24 31 37 42 44 49 54 56 55 53 61 63 68 71 70 74 75 75 72 69 66 61 60 61 60 61
24 26 23 19 12 9 18 24 31 36 32 37 53 60 66 69 73 73 67 70 76 74 78 78 72 71 68 69 65 64 66 66
33 26 24 24 22 17 14 23 33 43 47 51 60 65 73 75 79 80 81 73 76 77 81 81 75 71 71 72 74 73 72 71
27 24 30 31 32 27 19 28 34 51 60 62 66 67 67 73 79 83 77 79 81 91 78 81 79 76 77 77 76 77 78 76
26 24 25 31 31 25 28 26 32 38 47 53 66 70 73 73 79 79 80 82 89 85 78 82 81 80 80 79 79 79 79 78
26 27 28 31 31 32 32 36 37 35 38 43 52 61 66 69 72 75 76 75 80 86 86 85 84 84 83 84 82 80 81 83

GFSFLT1_250_spd_129.txt.gz
Wind_Speed
95 99 99 97 97 96 85 84 86 87 89 87 83 71 69 72 69 63 58 57 63 50 49 51 52 48 44 44 46 49 36 34
101 100 103 102 100 98 94 86 86 87 88 81 80 70 73 76 67 69 69 67 63 59 48 53 52 50 47 46 45 44 40 34
103 103 105 107 107 102 100 96 91 89 86 84 79 76 78 78 78 75 71 73 70 69 57 49 50 52 49 48 46 43 42 40
102 105 109 109 108 107 106 106 99 95 91 89 86 83 84 79 76 74 76 80 77 69 57 54 50 53 52 51 49 45 43 38
88 94 95 97 100 109 113 112 109 105 96 91 90 87 88 84 83 86 88 79 74 66 53 55 51 53 52 52 49 44 43 37
74 77 83 84 88 99 108 116 114 106 103 98 93 88 86 80 76 79 81 80 76 65 53 52 51 54 57 53 48 43 41 35
59 61 67 74 79 84 97 108 115 109 101 99 88 88 87 76 69 69 74 89 83 76 61 52 56 55 60 59 52 45 38 31
51 48 51 58 67 74 83 93 106 113 92 96 84 74 82 66 41 46 89 78 85 81 65 57 60 59 62 59 54 47 40 37
43 37 37 42 49 59 69 79 89 98 97 90 79 71 82 80 74 75 62 74 74 64 63 56 70 73 62 63 57 50 45 43
33 31 28 30 36 42 54 65 75 86 92 92 88 76 82 88 88 87 89 93 75 62 62 62 74 70 62 66 59 54 50 47
30 29 26 23 25 33 42 52 64 74 83 89 90 79 80 85 91 90 92 92 97 84 75 78 79 68 65 66 61 60 51 47
26 24 19 16 19 28 37 45 56 65 74 81 84 88 86 85 92 94 94 90 93 87 82 87 94 74 68 67 63 64 57 53
27 11 7 10 16 25 31 38 45 55 66 78 85 87 90 95 103 99 94 89 93 98 93 98 79 76 68 69 66 66 63 57
11 11 9 10 14 13 19 28 36 45 53 66 81 90 96 101 102 94 95 95 88 88 95 88 79 70 68 74 72 69 68 64
17 12 14 10 10 7 10 17 24 32 42 50 58 70 75 76 79 89 92 91 87 85 80 77 75 73 74 72 76 78 76 73
14 13 16 13 10 8 4 10 16 20 25 21 27 37 45 57 62 63 62 58 59 64 68 68 67 69 70 72 77 77 77 75
20 20 18 19 18 10 16 11 18 32 32 29 30 32 33 41 39 45 52 59 59 62 64 68 69 72 73 67 81 80 85 79
24 20 19 22 20 19 24 13 15 27 40 37 35 38 41 46 55 59 63 65 64 67 68 73 76 78 80 82 82 82 86 86
28 22 23 24 24 24 23 20 23 25 31 44 45 44 49 56 57 63 67 72 72 75 80 82 83 83 86 88 89 87 88 90

GFSFLT1_250_spd_132.txt.gz
Wind_Speed
99 100 102 106 106 102 101 99 92 90 85 83 81 77 71 67 67 72 74 75 70 69 57 61 60 58 56 44 52 49 47 43
102 104 106 103 105 105 104 106 103 94 93 89 89 84 80 74 65 68 76 74 70 65 60 62 63 64 58 48 50 54 49 48
99 103 106 107 106 105 106 103 103 104 101 96 94 92 81 77 74 76 75 70 64 67 65 69 66 62 56 41 41 53 52 48
96 96 99 102 102 102 105 106 104 108 106 100 94 93 84 75 72 75 74 67 68 70 68 68 53 53 48 52 44 46 55 48
83 82 87 90 93 95 99 104 107 107 113 103 92 90 82 69 70 70 69 71 71 75 71 67 65 61 43 46 47 44 52 51
74 72 72 71 74 79 84 90 101 109 111 103 94 88 83 63 68 67 64 69 72 75 79 72 66 63 47 44 53 44 48 49
63 58 58 57 60 66 72 76 86 97 106 97 92 88 83 54 65 68 53 61 70 68 80 81 74 58 59 53 54 49 44 47
54 53 51 50 52 56 61 65 74 82 92 89 83 82 77 64 63 50 98 71 67 58 70 81 76 62 55 61 55 49 41 46
48 46 44 38 41 45 47 52 59 68 78 76 77 75 70 75 68 58 67 72 50 25 74 74 64 58 59 56 61 61 55 44
32 31 36 30 28 29 33 38 48 54 63 67 69 68 62 69 54 62 66 70 52 54 60 68 73 61 49 59 59 54 52 46
31 37 36 30 24 19 22 30 38 42 51 57 64 64 63 69 71 67 74 76 56 86 85 78 95 88 84 55 56 60 58 47
36 28 28 29 20 18 17 26 33 39 46 52 63 67 64 72 77 76 80 86 87 87 77 83 88 80 76 83 67 64 56 52
22 19 29 18 19 16 16 20 26 31 45 53 64 71 76 68 70 80 91 87 99 103 99 89 85 86 84 83 82 79 74 68
27 26 6 13 9 7 12 14 23 32 37 48 58 68 74 77 85 83 80 82 86 95 99 105 105 95 98 100 97 91 83 80
26 10 8 5 10 8 4 9 13 21 29 35 53 66 75 78 83 88 88 90 91 91 93 98 104 102 101 95 90 89 94 86
27 18 12 5 6 7 7 11 16 14 17 26 41 54 69 79 86 88 85 87 90 92 93 92 93 87 90 90 94 89 85 82
26 24 15 10 10 11 11 11 12 19 24 27 26 30 47 61 74 83 90 91 90 88 94 96 96 95 94 94 97 93 87 84
32 22 16 13 13 9 8 14 17 24 27 27 33 37 38 47 53 64 77 89 97 101 104 104 99 96 91 85 88 86 84 80
28 25 17 17 19 15 13 15 23 29 26 31 28 34 35 38 40 47 53 62 64 69 73 79 76 76 75 74 74 76 74 75

GFSFLT1_250_spd_135.txt.gz
Wind_Speed
91 93 97 98 101 102 101 102 105 105 101 97 94 90 86 79 66 69 63 68 64 56 57 58 61 61 62 57 47 47 51 51
99 102 104 103 102 103 105 108 108 107 107 103 98 96 95 88 80 70 57 68 63 58 58 62 61 62 59 50 47 44 46 50
103 103 104 103 103 103 104 107 111 114 112 110 104 96 94 90 84 79 56 57 68 80 64 62 62 62 56 54 46 49 45 42
99 102 101 97 98 102 100 103 105 110 113 114 110 103 96 92 85 77 73 72 79 74 71 64 64 57 58 59 54 51 53 55
94 94 96 97 90 88 91 91 94 99 102 110 112 105 95 94 88 84 74 67 66 65 64 59 54 57 56 57 55 54 52 50
89 91 85 80 78 76 75 78 81 86 89 95 99 96 90 90 85 80 74 59 64 69 38 40 49 40 45 48 57 57 50 46
79 77 71 66 63 61 61 65 69 73 77 83 86 87 88 84 81 74 63 47 51 55 60 54 52 53 60 60 65 63 58 49
66 64 59 56 55 52 50 54 60 63 66 72 72 73 81 79 77 70 51 49 45 42 97 67 44 59 57 66 54 53 51 51
56 54 50 54 46 42 41 42 49 52 56 54 56 62 69 72 69 65 55 57 50 53 73 97 49 46 52 57 41 39 41 51
50 46 45 40 40 35 34 35 39 41 45 44 44 51 59 61 62 59 61 59 52 56 41 53 77 50 56 39 46 48 44 42
39 41 35 36 35 32 30 29 30 32 35 35 35 43 49 53 56 67 65 64 61 57 51 76 78 61 41 54 73 66 66 68
40 30 31 31 33 31 26 28 26 25 30 27 32 38 44 52 58 71 70 71 65 69 66 70 73 59 67 67 79 79 78 76
29 24 31 32 28 24 22 25 23 24 27 25 30 35 53 60 65 81 72 69 68 73 74 79 68 64 78 84 96 85 80 77
23 25 26 24 21 21 19 21 16 14 12 19 32 37 49 57 76 74 74 74 80 79 84 88 88 76 79 79 93 76 89 79
19 21 25 15 22 21 12 14 15 18 17 18 19 37 50 60 72 72 77 82 94 91 89 84 90 90 96 95 91 89 88 74
19 23 21 16 20 20 16 11 15 13 19 19 22 34 49 60 68 72 77 84 98 101 101 109 107 104 106 101 99 97 98 93
16 25 28 19 23 12 5 5 5 12 16 20 27 30 43 57 65 70 67 78 86 92 96 104 104 104 108 106 106 108 111 108
17 20 30 26 21 18 12 13 11 13 17 15 17 22 34 43 59 65 74 76 84 79 80 93 94 97 106 109 108 110 114 113
20 17 23 26 23 20 20 14 15 14 17 21 17 22 27 35 44 58 73 79 78 83 85 92 94 99 97 99 108 111 111 108